N4ASP-13 Weather Reports


time (UTC)temp
F
wind
direction
speed
knots
gust
knots
rain 1hr
in
rain 24hr
in
rain mn
in
humidity
%
barometer
mb
20260507234830 56 328 7.0 11.3 0.00 0.19 0.09 78 1011.6
20260507234732 56 320 7.0 11.3 0.00 0.19 0.09 78 1011.7
20260507234630 56 297 6.1 11.3 0.00 0.19 0.09 78 1011.7
20260507234530 56 316 6.1 10.4 0.00 0.19 0.09 79 1011.6
20260507234428 56 309 6.1 10.4 0.00 0.19 0.09 79 1011.6
20260507234329 56 292 7.0 10.4 0.00 0.19 0.09 79 1011.6
20260507234228 56 309 7.0 11.3 0.00 0.19 0.09 79 1011.6
20260507234128 56 269 7.0 11.3 0.00 0.19 0.09 79 1011.6
20260507234030 56 291 7.0 11.3 0.00 0.20 0.09 79 1011.6
20260507233930 56 286 7.0 12.2 0.00 0.20 0.09 79 1011.6
20260507233828 56 327 7.8 12.2 0.00 0.20 0.09 79 1011.6
20260507233728 56 317 7.8 12.2 0.00 0.20 0.09 78 1011.6
20260507233623 56 325 7.8 12.2 0.00 0.20 0.09 78 1011.6
20260507233524 56 306 7.8 12.2 0.00 0.20 0.09 78 1011.6
20260507233424 56 314 8.7 13.9 0.00 0.20 0.09 78 1011.5
20260507233323 56 312 8.7 13.9 0.00 0.20 0.09 78 1011.5
20260507233222 56 328 8.7 13.9 0.00 0.20 0.09 78 1011.5
20260507233118 56 281 8.7 13.9 0.00 0.20 0.09 79 1011.5
20260507233018 56 304 8.7 13.9 0.00 0.20 0.09 79 1011.4
20260507232918 56 311 8.7 13.9 0.00 0.20 0.09 79 1011.5
20260507232817 56 325 8.7 13.9 0.00 0.20 0.09 79 1011.4
20260507232718 56 321 9.6 16.5 0.00 0.20 0.09 79 1011.4
20260507232618 56 313 9.6 17.4 0.00 0.20 0.09 79 1011.3
20260507232518 56 336 9.6 17.4 0.00 0.20 0.09 79 1011.3
20260507232417 56 306 9.6 17.4 0.00 0.20 0.09 78 1011.3
20260507232317 56 314 9.6 17.4 0.00 0.20 0.09 78 1011.3
20260507232217 56 318 9.6 17.4 0.00 0.20 0.09 78 1011.3
20260507232115 56 321 9.6 17.4 0.00 0.20 0.09 78 1011.2
20260507232014 56 304 9.6 17.4 0.00 0.20 0.09 78 1011.3
20260507231914 57 287 9.6 17.4 0.00 0.20 0.09 78 1011.2
20260507231815 57 331 9.6 17.4 0.00 0.20 0.09 78 1011.2
20260507231715 57 314 8.7 17.4 0.00 0.20 0.09 78 1011.2
20260507231615 57 339 8.7 14.8 0.00 0.20 0.09 78 1011.1
20260507231514 57 328 8.7 14.8 0.00 0.20 0.09 78 1011.1
20260507231410 57 325 8.7 14.8 0.00 0.20 0.09 79 1011.2
20260507231309 57 307 8.7 14.8 0.00 0.20 0.09 79 1011.2
20260507231210 57 275 8.7 14.8 0.00 0.20 0.09 78 1011.2
20260507231108 57 327 8.7 14.8 0.00 0.20 0.09 78 1011.1
20260507231009 57 291 8.7 13.9 0.00 0.20 0.09 78 1011.1
20260507230859 57 303 7.8 13.9 0.00 0.20 0.09 79 1011.2
20260507230759 57 319 8.7 13.9 0.00 0.20 0.09 79 1011.1
20260507230659 57 304 8.7 15.6 0.00 0.20 0.09 78 1011.0
20260507230558 57 302 8.7 15.6 0.00 0.20 0.09 78 1011.1
20260507230459 57 329 8.7 15.6 0.00 0.20 0.09 78 1011.0
20260507230353 58 295 8.7 15.6 0.00 0.20 0.09 78 1011.1
20260507230254 58 315 8.7 15.6 0.00 0.20 0.09 78 1011.1
20260507230153 58 290 8.7 15.6 0.00 0.20 0.09 78 1011.0
20260507230053 58 311 8.7 15.6 0.00 0.20 0.09 78 1011.1
20260507225953 58 301 8.7 15.6 0.00 0.20 0.09 78 1011.0
20260507225849 58 323 8.7 15.6 0.00 0.20 0.09 78 1011.1
20260507225746 58 306 8.7 14.8 0.00 0.20 0.09 78 1011.0
20260507225647 58 319 8.7 14.8 0.00 0.20 0.09 78 1011.0
20260507225547 58 317 7.8 14.8 0.00 0.20 0.09 79 1010.9
20260507225447 58 331 7.8 14.8 0.00 0.20 0.09 79 1010.9
20260507225336 58 308 7.8 14.8 0.00 0.20 0.09 79 1010.9
20260507225236 58 304 7.8 13.9 0.00 0.20 0.09 79 1011.0
20260507225136 58 331 7.8 13.9 0.00 0.20 0.09 79 1011.0
20260507225037 58 319 7.8 13.9 0.00 0.20 0.09 80 1011.0
20260507224935 58 303 7.8 13.9 0.00 0.20 0.09 80 1011.0
20260507224829 57 311 7.8 13.9 0.00 0.20 0.09 80 1010.9
20260507224729 57 329 8.7 13.9 0.00 0.20 0.09 80 1010.9
20260507224629 57 325 8.7 13.9 0.00 0.20 0.09 80 1010.9
20260507224528 57 327 8.7 13.9 0.00 0.20 0.09 81 1011.0
20260507224428 57 314 7.8 13.9 0.00 0.20 0.09 81 1011.1
20260507224323 57 331 7.8 13.9 0.00 0.20 0.09 80 1011.0
20260507224223 57 319 7.8 13.9 0.00 0.20 0.09 80 1011.0
20260507224123 57 298 7.8 13.9 0.00 0.20 0.09 80 1011.0
20260507224024 57 315 7.8 13.9 0.00 0.20 0.09 80 1010.9
20260507223922 57 304 7.0 13.9 0.00 0.20 0.09 80 1011.0
20260507223813 57 309 7.0 13.9 0.00 0.20 0.09 80 1010.9
20260507223713 57 336 7.0 11.3 0.00 0.20 0.09 81 1011.0
20260507223613 57 344 7.0 11.3 0.00 0.20 0.09 81 1010.9
20260507223512 58 298 6.1 11.3 0.00 0.20 0.09 82 1011.0
20260507223413 58 336 6.1 11.3 0.00 0.20 0.09 81 1011.0
20260507223307 58 308 7.0 15.6 0.00 0.20 0.09 82 1010.9
20260507223207 58 319 7.0 15.6 0.00 0.20 0.09 82 1010.9
20260507223107 58 316 7.0 15.6 0.00 0.20 0.09 82 1010.9
20260507223007 58 319 7.0 15.6 0.00 0.20 0.09 82 1010.9
20260507222907 58 298 7.8 15.6 0.00 0.20 0.09 81 1010.9
20260507222801 58 325 7.8 15.6 0.00 0.20 0.09 82 1010.9
20260507222701 58 305 7.8 15.6 0.00 0.20 0.09 82 1010.8
20260507222601 58 306 7.8 15.6 0.00 0.20 0.09 82 1010.8
20260507222500 58 333 8.7 15.6 0.00 0.20 0.09 82 1010.8
20260507222400 58 334 8.7 15.6 0.00 0.20 0.09 82 1010.7
20260507222250 59 301 7.8 13.9 0.00 0.20 0.09 84 1010.6
20260507222150 59 300 7.8 12.2 0.00 0.20 0.09 84 1010.6
20260507222051 59 282 7.8 12.2 0.00 0.20 0.09 84 1010.6
20260507221951 59 355 7.8 12.2 0.00 0.20 0.09 85 1010.7
20260507221850 59 324 7.8 12.2 0.00 0.20 0.09 85 1010.6
20260507221746 59 338 7.0 12.2 0.00 0.20 0.09 85 1010.6
20260507221646 59 28 7.0 12.2 0.00 0.20 0.09 85 1010.6
20260507221547 60 311 6.1 11.3 0.00 0.20 0.09 86 1010.7
20260507221446 60 334 6.1 10.4 0.00 0.20 0.09 86 1010.6
20260507221344 60 319 6.1 10.4 0.00 0.20 0.09 86 1010.6
20260507221239 60 351 6.1 10.4 0.00 0.20 0.09 85 1010.6
20260507221138 60 325 5.2 10.4 0.00 0.20 0.09 85 1010.5
20260507221039 60 351 5.2 10.4 0.00 0.20 0.09 85 1010.5
20260507220940 60 313 5.2 10.4 0.00 0.20 0.09 85 1010.6
20260507220838 60 336 4.3 10.4 0.00 0.20 0.09 85 1010.4
20260507220729 60 355 4.3 8.7 0.00 0.20 0.09 85 1010.5
20260507220628 60 348 4.3 8.7 0.00 0.20 0.09 85 1010.4
20260507220529 60 13 4.3 8.7 0.00 0.20 0.09 85 1010.4
20260507220428 61 334 3.5 8.7 0.00 0.20 0.09 85 1010.4
20260507220329 61 335 3.5 7.8 0.00 0.20 0.09 85 1010.5
20260507220222 61 333 3.5 7.0 0.00 0.20 0.09 85 1010.2
20260507220122 61 312 2.6 7.0 0.00 0.20 0.09 84 1010.4
20260507220022 61 310 2.6 7.0 0.00 0.20 0.09 84 1010.5
20260507215923 61 309 2.6 7.0 0.00 0.20 0.09 84 1010.4
20260507215822 61 328 2.6 7.8 0.00 0.20 0.09 84 1010.4
20260507215722 61 22 3.5 7.8 0.00 0.20 0.09 84 1010.2
20260507215621 61 0 3.5 7.8 0.00 0.20 0.09 83 1010.2
20260507215520 61 19 3.5 7.8 0.00 0.20 0.09 84 1010.1
20260507215419 61 9 3.5 7.8 0.00 0.20 0.09 84 1010.2
20260507215317 61 14 3.5 7.8 0.00 0.20 0.09 84 1010.4
20260507215207 61 344 3.5 7.8 0.00 0.20 0.09 83 1010.4
20260507215108 61 347 3.5 7.8 0.00 0.20 0.09 84 1010.2
20260507215007 61 348 3.5 7.8 0.00 0.20 0.09 84 1010.2
20260507214906 61 346 3.5 7.8 0.00 0.20 0.09 84 1010.1
20260507214806 61 321 3.5 7.0 0.00 0.20 0.09 84 1010.1
20260507214702 61 40 3.5 7.0 0.00 0.20 0.09 84 1010.1
20260507214601 61 11 3.5 7.0 0.00 0.20 0.09 84 1010.0
20260507214501 61 30 3.5 7.0 0.00 0.20 0.09 84 1010.1
20260507214401 61 31 3.5 7.0 0.00 0.20 0.09 84 1010.0
20260507214301 61 5 3.5 7.0 0.00 0.20 0.09 84 1010.0
20260507214158 61 30 3.5 7.0 0.00 0.20 0.09 84 1010.0
20260507214058 61 38 2.6 7.0 0.00 0.20 0.09 84 1010.0
20260507213957 62 53 2.6 7.0 0.00 0.20 0.09 84 1010.0
20260507213857 61 355 2.6 7.0 0.00 0.20 0.09 84 1010.1
20260507213754 62 25 2.6 6.1 0.00 0.20 0.09 84 1010.1
20260507213649 62 21 2.6 6.1 0.00 0.20 0.09 83 1010.2
20260507213548 62 46 2.6 6.1 0.00 0.20 0.09 83 1010.1
20260507213447 62 32 2.6 6.1 0.00 0.20 0.09 84 1010.1
20260507213345 62 38 2.6 6.1 0.00 0.20 0.09 84 1010.0
20260507213246 62 49 3.5 7.0 0.00 0.20 0.09 84 1010.1
20260507213145 62 79 3.5 7.0 0.00 0.20 0.09 84 1010.0
20260507213042 62 80 3.5 7.0 0.00 0.20 0.09 83 1010.0
20260507212943 62 78 2.6 7.0 0.00 0.20 0.09 83 1009.9
20260507212841 62 55 2.6 7.0 0.00 0.20 0.09 83 1009.8
20260507212739 62 80 2.6 7.0 0.00 0.20 0.09 83 1009.8
20260507212634 62 78 2.6 7.0 0.00 0.20 0.09 83 1009.8
20260507212531 62 59 2.6 7.0 0.00 0.20 0.09 83 1009.7
20260507212433 62 67 1.7 7.0 0.00 0.20 0.09 83 1009.8
20260507212334 62 86 1.7 7.0 0.00 0.20 0.09 84 1009.7
20260507212233 62 63 0.9 4.3 0.00 0.20 0.09 84 1009.8
20260507212123 62 63 0.9 4.3 0.00 0.20 0.09 85 1009.8
20260507212022 62 71 0.9 4.3 0.00 0.20 0.09 84 1009.8
20260507211923 62 28 0.9 4.3 0.00 0.20 0.09 84 1009.8
20260507211823 62 39 0.9 4.3 0.00 0.20 0.09 84 1009.9
20260507211722 62 40 0.9 4.3 0.00 0.20 0.09 84 1009.9
20260507211619 62 34 0.9 4.3 0.00 0.20 0.09 84 1009.8
20260507211517 62 59 0.0 3.5 0.00 0.20 0.09 84 1009.9
20260507211417 62 99 0.9 7.8 0.00 0.20 0.09 84 1009.7
20260507211316 62 36 0.9 7.8 0.00 0.20 0.09 84 1009.7
20260507211217 62 32 0.9 7.8 0.00 0.20 0.09 84 1009.6
20260507211115 62 22 0.9 7.8 0.00 0.20 0.09 84 1009.6
20260507211015 62 5 0.9 7.8 0.00 0.20 0.09 84 1009.6
20260507210914 62 0 0.9 7.8 0.00 0.20 0.09 84 1009.7
20260507210812 62 0 0.9 7.8 0.00 0.20 0.09 84 1009.7
20260507210711 62 5 0.9 7.8 0.00 0.20 0.09 84 1009.6
20260507210601 62 26 0.9 7.8 0.00 0.20 0.09 85 1009.5
20260507210500 62 319 0.9 7.8 0.00 0.20 0.09 85 1009.5
20260507210401 62 351 0.0 3.5 0.00 0.20 0.09 86 1009.5
20260507210259 62 340 0.0 3.5 0.00 0.20 0.09 86 1009.5
20260507210201 62 55 0.0 3.5 0.00 0.20 0.09 84 1009.4
20260507210100 62 61 0.0 3.5 0.00 0.20 0.09 84 1009.4
20260507205959 62 53 0.0 3.5 0.00 0.20 0.09 84 1009.3
20260507205859 62 74 0.0 3.5 0.00 0.20 0.09 84 1009.3
20260507205757 62 71 0.0 3.5 0.00 0.20 0.09 85 1009.3
20260507205655 62 71 0.0 3.5 0.00 0.20 0.09 85 1009.2
20260507205549 62 22 0.0 3.5 0.00 0.20 0.09 85 1009.2
20260507205447 62 69 0.0 2.6 0.00 0.20 0.09 84 1009.3
20260507205349 62 70 0.0 2.6 0.00 0.20 0.09 85 1009.3
20260507205247 62 77 0.0 2.6 0.00 0.20 0.09 86 1009.3
20260507205148 62 22 0.0 2.6 0.00 0.20 0.09 86 1009.3
20260507205040 62 5 0.0 4.3 0.00 0.20 0.09 85 1009.3
20260507204940 62 355 0.0 4.3 0.00 0.20 0.09 85 1009.3
20260507204841 62 339 0.0 4.3 0.00 0.20 0.09 85 1009.3
20260507204740 62 13 0.0 4.3 0.00 0.20 0.09 85 1009.3
20260507204638 62 21 0.0 4.3 0.00 0.20 0.09 84 1009.3
20260507204537 62 39 0.0 4.3 0.00 0.20 0.09 85 1009.3
20260507204437 62 350 0.0 4.3 0.00 0.20 0.09 85 1009.3
20260507204335 62 28 0.0 4.3 0.00 0.20 0.09 85 1009.3
20260507204235 62 65 0.0 4.3 0.00 0.20 0.09 85 1009.3
20260507204132 62 90 0.0 4.3 0.00 0.20 0.09 85 1009.3
20260507204028 62 54 0.0 0.9 0.00 0.20 0.09 85 1009.3
20260507203926 63 49 0.0 0.9 0.00 0.20 0.09 85 1009.3
20260507203827 63 49 0.0 0.9 0.00 0.20 0.09 84 1009.4
20260507203726 63 72 0.0 0.9 0.00 0.20 0.09 84 1009.4
20260507203627 63 74 0.0 0.9 0.00 0.20 0.09 84 1009.3
20260507203520 63 60 0.0 0.9 0.00 0.20 0.09 85 1009.3
20260507203421 63 49 0.0 0.9 0.00 0.20 0.09 85 1009.2
20260507203318 63 46 0.0 0.9 0.00 0.20 0.09 85 1009.2
20260507203219 63 59 0.0 0.9 0.00 0.20 0.09 85 1009.3
20260507203117 63 78 0.0 0.0 0.00 0.20 0.09 85 1009.2
20260507203013 63 96 0.0 0.9 0.00 0.20 0.09 85 1009.3
20260507202910 63 90 0.0 1.7 0.00 0.20 0.09 85 1009.2
20260507202810 63 86 0.0 1.7 0.00 0.20 0.09 85 1009.2
20260507202711 63 57 0.0 1.7 0.00 0.20 0.09 85 1009.2
20260507202610 63 75 0.0 2.6 0.00 0.20 0.09 85 1009.1
20260507202505 63 63 0.9 2.6 0.00 0.20 0.09 85 1009.2
20260507202403 63 61 0.9 3.5 0.00 0.20 0.09 85 1009.1
20260507202307 63 105 0.9 7.0 0.00 0.20 0.09 85 1009.2
20260507202205 63 72 0.9 7.0 0.00 0.20 0.09 85 1009.2
20260507202104 63 82 1.7 7.0 0.00 0.20 0.09 85 1009.2
20260507201958 63 88 2.6 7.0 0.00 0.20 0.09 86 1009.3
20260507201857 63 40 2.6 7.8 0.00 0.20 0.09 86 1009.2
20260507201759 63 51 3.5 7.8 0.00 0.20 0.09 86 1009.1
20260507201657 63 76 3.5 7.8 0.00 0.20 0.09 86 1009.1
20260507201555 63 63 4.3 7.8 0.00 0.20 0.09 86 1009.1
20260507201454 63 57 4.3 8.7 0.00 0.20 0.09 85 1009.1
20260507201353 63 78 4.3 8.7 0.00 0.20 0.09 85 1009.0
20260507201252 63 86 4.3 8.7 0.00 0.20 0.09 85 1009.0
20260507201151 63 82 4.3 8.7 0.00 0.20 0.09 85 1009.0
20260507201048 63 87 5.2 8.7 0.00 0.20 0.09 85 1009.0
20260507200946 63 74 4.3 8.7 0.00 0.20 0.09 85 1009.1
20260507200846 63 67 4.3 8.7 0.00 0.20 0.09 85 1009.1
20260507200744 63 55 5.2 8.7 0.00 0.20 0.09 85 1009.1
20260507200645 63 44 5.2 8.7 0.00 0.20 0.09 86 1009.0
20260507200543 63 40 5.2 8.7 0.00 0.20 0.09 86 1009.0
20260507200435 63 94 4.3 8.7 0.00 0.20 0.09 86 1009.0
20260507200332 63 72 3.5 8.7 0.00 0.20 0.09 86 1009.1
20260507200233 63 78 3.5 8.7 0.00 0.20 0.09 86 1009.0
20260507200132 63 78 2.6 8.7 0.00 0.20 0.09 86 1009.0
20260507200032 63 34 2.6 8.7 0.00 0.20 0.09 85 1009.1
20260507195929 63 76 1.7 7.8 0.00 0.20 0.09 85 1009.1
20260507195826 63 77 1.7 7.8 0.00 0.20 0.09 86 1009.1
20260507195726 63 76 0.9 7.8 0.00 0.20 0.09 86 1009.1
20260507195627 63 63 0.9 7.8 0.00 0.20 0.09 85 1009.1
20260507195527 63 43 0.0 4.3 0.00 0.20 0.09 85 1009.2
20260507195421 63 57 0.9 5.2 0.00 0.20 0.09 86 1009.1
20260507195319 63 63 0.9 7.0 0.00 0.20 0.09 86 1009.0
20260507195221 63 27 1.7 7.0 0.00 0.20 0.09 87 1009.2
20260507195120 63 55 1.7 7.8 0.00 0.20 0.09 87 1009.1
20260507195021 63 44 2.6 7.8 0.00 0.20 0.09 87 1009.2
20260507194911 63 38 3.5 9.6 0.00 0.20 0.09 88 1009.2
20260507194810 62 45 4.3 9.6 0.00 0.20 0.09 88 1009.2
20260507194711 62 86 4.3 9.6 0.00 0.20 0.09 88 1009.2
20260507194611 62 42 5.2 9.6 0.00 0.20 0.09 88 1009.2
20260507194511 62 43 5.2 9.6 0.00 0.20 0.09 87 1009.2
20260507194405 62 93 5.2 9.6 0.00 0.20 0.09 87 1009.2
20260507194305 62 95 5.2 9.6 0.00 0.20 0.09 87 1009.1
20260507194205 62 103 5.2 9.6 0.00 0.20 0.09 87 1009.2
20260507194105 62 78 5.2 9.6 0.00 0.20 0.09 87 1009.2
20260507194005 62 82 4.3 9.6 0.00 0.20 0.09 87 1009.2
20260507193859 62 89 4.3 9.6 0.00 0.20 0.09 88 1009.2
20260507193759 62 77 4.3 9.6 0.00 0.20 0.09 88 1009.2
20260507193658 61 98 5.2 9.6 0.00 0.20 0.09 88 1009.2
20260507193559 61 98 5.2 9.6 0.00 0.20 0.09 88 1009.3
20260507193458 61 93 5.2 9.6 0.00 0.20 0.09 88 1009.3
20260507193349 61 67 5.2 9.6 0.00 0.20 0.09 88 1009.3
20260507193248 61 57 5.2 11.3 0.00 0.20 0.09 89 1009.3
20260507193149 61 71 5.2 11.3 0.00 0.20 0.09 90 1009.2
20260507193047 61 88 5.2 11.3 0.00 0.20 0.09 90 1009.3
20260507192949 61 96 6.1 11.3 0.00 0.20 0.09 89 1009.3
20260507192843 61 98 6.1 11.3 0.00 0.20 0.09 90 1009.4
20260507192742 61 78 6.1 11.3 0.00 0.20 0.09 90 1009.3
20260507192642 60 80 6.1 11.3 0.00 0.20 0.09 90 1009.4
20260507192543 60 71 7.0 11.3 0.00 0.20 0.09 89 1009.3
20260507192443 60 98 6.1 11.3 0.00 0.20 0.09 89 1009.3
20260507192337 60 81 6.1 11.3 0.00 0.20 0.09 89 1009.4
20260507192237 60 93 6.1 10.4 0.00 0.20 0.09 89 1009.4
20260507192137 60 96 6.1 10.4 0.00 0.20 0.09 89 1009.4
20260507192035 60 121 6.1 10.4 0.00 0.20 0.09 89 1009.5
20260507191937 60 102 5.2 10.4 0.00 0.20 0.09 89 1009.5
20260507191827 60 106 6.1 10.4 0.00 0.20 0.09 89 1009.5
20260507191725 60 111 6.1 10.4 0.00 0.20 0.09 89 1009.5
20260507191627 60 77 6.1 11.3 0.00 0.20 0.09 89 1009.6
20260507191526 60 94 6.1 11.3 0.00 0.20 0.09 89 1009.5
20260507191427 60 98 5.2 13.0 0.00 0.20 0.09 89 1009.6
20260507191320 60 82 5.2 13.0 0.00 0.20 0.09 89 1009.6
20260507191221 60 55 6.1 13.0 0.00 0.20 0.09 89 1009.6
20260507191121 60 92 5.2 13.0 0.00 0.20 0.09 89 1009.6
20260507191021 60 107 5.2 13.0 0.00 0.20 0.09 89 1009.5
20260507190921 60 54 5.2 13.0 0.00 0.20 0.09 89 1009.5
20260507190815 60 43 5.2 13.0 0.00 0.20 0.09 88 1009.5
20260507190715 60 60 5.2 13.0 0.00 0.20 0.09 88 1009.5
20260507190614 60 332 5.2 13.0 0.00 0.20 0.09 89 1009.6
20260507190515 60 344 5.2 11.3 0.00 0.20 0.09 88 1009.6
20260507190415 60 26 5.2 11.3 0.00 0.20 0.09 88 1009.6
20260507190305 61 34 5.2 11.3 0.00 0.20 0.09 89 1009.6
20260507190203 61 50 5.2 11.3 0.00 0.20 0.09 89 1009.5
20260507190105 61 23 5.2 11.3 0.00 0.20 0.09 89 1009.6
20260507190005 61 44 6.1 11.3 0.00 0.20 0.09 88 1009.6
20260507185904 61 257 6.1 11.3 0.00 0.20 0.09 88 1009.5
20260507185758 61 5 6.1 11.3 0.00 0.20 0.09 88 1009.4
20260507185659 61 32 5.2 11.3 0.00 0.20 0.09 88 1009.3
20260507185559 61 12 5.2 11.3 0.00 0.20 0.09 88 1009.3
20260507185458 61 30 5.2 10.4 0.00 0.20 0.09 88 1009.4
20260507185358 61 355 5.2 10.4 0.00 0.20 0.09 88 1009.5
20260507185253 62 42 5.2 10.4 0.00 0.20 0.09 88 1009.4
20260507185152 62 30 5.2 10.4 0.00 0.20 0.09 88 1009.4
20260507185053 62 35 4.3 10.4 0.00 0.20 0.09 88 1009.4
20260507184952 62 9 4.3 9.6 0.00 0.20 0.09 87 1009.4
20260507184853 62 22 5.2 9.6 0.00 0.20 0.09 87 1009.4
20260507184743 62 25 5.2 9.6 0.00 0.20 0.09 87 1009.4
20260507184644 62 312 5.2 10.4 0.00 0.20 0.09 87 1009.3
20260507184543 62 69 5.2 10.4 0.00 0.20 0.09 87 1009.3
20260507184445 62 66 5.2 10.4 0.00 0.20 0.09 86 1009.3
20260507184343 62 94 5.2 10.4 0.00 0.20 0.09 86 1009.4
20260507184237 63 59 5.2 10.4 0.00 0.20 0.09 86 1009.4
20260507184136 63 85 5.2 10.4 0.00 0.20 0.09 86 1009.4
20260507184037 63 30 5.2 10.4 0.00 0.20 0.09 86 1009.4
20260507183937 63 24 5.2 10.4 0.00 0.20 0.09 85 1009.4
20260507183837 63 21 5.2 10.4 0.00 0.20 0.09 85 1009.4
20260507183730 63 27 5.2 10.4 0.00 0.20 0.09 86 1009.3
20260507183630 63 35 5.2 10.4 0.00 0.20 0.09 86 1009.1
20260507183530 63 29 5.2 10.4 0.00 0.20 0.09 86 1009.0
20260507183431 63 32 5.2 10.4 0.00 0.20 0.09 86 1009.2
20260507183330 63 69 4.3 10.4 0.00 0.20 0.09 86 1009.3
20260507183221 63 71 4.3 10.4 0.00 0.20 0.09 88 1009.3
20260507183121 63 47 4.3 10.4 0.00 0.20 0.09 87 1009.2
20260507183021 63 59 4.3 10.4 0.00 0.20 0.09 88 1009.2
20260507182920 63 38 4.3 10.4 0.00 0.20 0.09 87 1009.3
20260507182820 63 53 4.3 10.4 0.00 0.20 0.09 87 1009.3
20260507182715 63 5 4.3 10.4 0.00 0.20 0.09 87 1009.4
20260507182613 63 43 4.3 10.4 0.00 0.20 0.09 88 1009.5
20260507182514 63 17 4.3 10.4 0.00 0.20 0.09 87 1009.6
20260507182415 63 338 4.3 10.4 0.00 0.20 0.09 87 1009.6
20260507182315 63 5 5.2 10.4 0.00 0.20 0.09 87 1009.5
20260507182211 63 5 5.2 13.0 0.00 0.20 0.09 86 1009.5
20260507182108 63 22 6.1 13.9 0.00 0.20 0.09 86 1009.5
20260507182009 63 28 7.0 15.6 0.00 0.20 0.09 86 1009.4
20260507181909 63 36 7.0 15.6 0.00 0.20 0.09 86 1009.4
20260507181807 64 53 6.1 15.6 0.00 0.20 0.09 85 1009.4
20260507181657 64 5 5.2 15.6 0.00 0.20 0.09 85 1009.5
20260507181556 64 42 5.2 15.6 0.00 0.20 0.09 84 1009.5
20260507181456 64 10 4.3 15.6 0.00 0.20 0.09 84 1009.5
20260507181356 65 5 4.3 15.6 0.00 0.20 0.09 83 1009.4
20260507181257 65 10 2.6 15.6 0.00 0.20 0.09 82 1009.3
20260507181152 66 332 1.7 15.6 0.00 0.20 0.09 82 1009.3
20260507181053 67 17 0.9 13.9 0.00 0.20 0.09 82 1009.2
20260507180951 67 322 0.0 13.9 0.00 0.20 0.09 83 1009.2
20260507180851 68 11 0.0 0.0 0.00 0.20 0.09 84 1009.1
20260507180752 68 15 0.0 0.0 0.00 0.20 0.09 84 1009.1
20260507180653 68 344 0.0 0.0 0.00 0.20 0.09 84 1009.2
20260507180552 68 41 0.0 0.0 0.00 0.20 0.09 84 1009.1
20260507180451 68 27 0.0 0.0 0.00 0.20 0.09 84 1009.2
20260507180350 69 331 0.0 0.0 0.00 0.20 0.09 84 1009.1
20260507180249 69 315 0.0 0.0 0.00 0.20 0.09 83 1009.0
20260507180139 69 294 0.0 0.0 0.00 0.20 0.09 83 1008.9
20260507180038 69 273 0.0 0.0 0.00 0.20 0.09 83 1009.0
20260507175938 69 273 0.0 0.0 0.00 0.20 0.09 84 1008.9
20260507175837 69 263 0.0 0.0 0.00 0.20 0.09 85 1009.0
20260507175735 69 53 0.0 0.0 0.00 0.20 0.09 84 1009.0
20260507175631 69 53 0.0 0.0 0.00 0.20 0.09 83 1008.9
20260507175529 69 5 0.0 0.0 0.00 0.20 0.09 84 1008.8
20260507175427 69 57 0.0 0.0 0.00 0.20 0.09 83 1008.8
20260507175328 69 93 0.0 0.0 0.00 0.20 0.09 83 1008.8
20260507175228 69 94 0.0 0.0 0.00 0.20 0.09 83 1008.8
20260507175122 69 103 0.0 0.0 0.00 0.20 0.09 83 1008.8
20260507175023 69 101 0.0 0.0 0.00 0.20 0.09 83 1008.6
20260507174922 69 115 0.0 0.0 0.00 0.20 0.09 83 1008.8
20260507174823 69 103 0.0 0.0 0.00 0.20 0.09 82 1008.8
20260507174722 70 90 0.0 0.0 0.00 0.20 0.09 82 1008.8
20260507174613 70 102 0.0 0.0 0.00 0.20 0.09 82 1008.9
20260507174513 70 96 0.0 0.0 0.00 0.20 0.09 81 1008.9
20260507174414 70 92 0.0 0.0 0.00 0.20 0.09 81 1008.9
20260507174315 70 97 0.0 0.0 0.00 0.20 0.09 81 1008.9
20260507174212 70 114 0.0 0.0 0.00 0.20 0.09 81 1008.9
20260507174107 70 106 0.0 0.0 0.00 0.20 0.09 82 1009.0
20260507174007 70 89 0.0 0.0 0.00 0.20 0.09 81 1009.1
20260507173907 70 86 0.0 0.0 0.00 0.20 0.09 80 1009.1
20260507173805 70 86 0.0 0.0 0.00 0.20 0.09 80 1009.2
20260507173707 70 92 0.0 0.0 0.00 0.20 0.09 80 1009.2
20260507173559 70 154 0.0 0.0 0.00 0.20 0.09 81 1009.2
20260507173501 70 97 0.0 0.0 0.00 0.20 0.09 81 1009.1
20260507173400 70 88 0.0 0.0 0.00 0.20 0.09 81 1009.1
20260507173259 70 78 0.0 0.0 0.00 0.20 0.09 80 1009.1
20260507173201 70 80 0.0 0.0 0.00 0.20 0.09 80 1009.0
20260507173056 70 77 0.0 0.0 0.00 0.20 0.09 79 1009.1
20260507172955 70 80 0.0 0.0 0.00 0.20 0.09 79 1009.1
20260507172853 70 85 0.0 0.0 0.00 0.20 0.09 79 1009.0
20260507172752 70 92 0.0 0.0 0.00 0.20 0.09 79 1009.0
20260507172650 70 83 0.0 0.0 0.00 0.20 0.09 79 1009.1
20260507172547 70 122 0.0 0.0 0.00 0.20 0.09 80 1009.1
20260507172345 70 124 0.0 0.0 0.00 0.20 0.09 80 1009.2
20260507172244 70 124 0.0 0.0 0.00 0.20 0.09 80 1009.2
20260507172144 70 128 0.0 0.0 0.00 0.20 0.09 79 1009.3
20260507172040 70 117 0.0 0.0 0.00 0.20 0.09 80 1009.3
20260507171938 70 115 0.0 0.0 0.00 0.20 0.09 80 1009.3
20260507171838 70 121 0.0 0.0 0.00 0.20 0.09 79 1009.2
20260507171738 70 126 0.0 0.0 0.00 0.20 0.09 79 1009.3
20260507171638 70 63 0.0 0.0 0.00 0.20 0.09 80 1009.3
20260507171529 70 61 0.0 0.0 0.00 0.20 0.09 79 1009.3
20260507171430 70 61 0.0 0.0 0.00 0.20 0.09 79 1009.4
20260507171331 70 61 0.0 0.0 0.00 0.20 0.09 80 1009.4
20260507171230 70 61 0.0 0.0 0.00 0.20 0.09 80 1009.3
20260507171129 70 109 0.0 0.0 0.00 0.20 0.09 80 1009.3
20260507171025 70 74 0.0 0.0 0.00 0.21 0.09 80 1009.3
20260507170923 70 71 0.0 0.0 0.00 0.21 0.09 79 1009.2
20260507170821 70 69 0.0 0.0 0.00 0.21 0.09 78 1009.2
20260507170723 70 69 0.0 0.0 0.00 0.21 0.09 79 1009.3
20260507170622 70 59 0.0 0.0 0.00 0.21 0.09 80 1009.2
20260507170518 70 55 0.0 0.0 0.00 0.21 0.09 79 1009.4
20260507170415 70 51 0.0 0.0 0.00 0.21 0.09 78 1009.3
20260507170317 70 51 0.0 0.0 0.00 0.21 0.09 79 1009.4
20260507170215 70 51 0.0 0.0 0.00 0.21 0.09 78 1009.4
20260507170116 70 46 0.0 0.0 0.00 0.21 0.09 78 1009.4
20260507170005 70 45 0.0 0.0 0.00 0.21 0.09 79 1009.3
20260507165906 70 42 0.0 0.0 0.00 0.21 0.09 79 1009.3
20260507165807 70 277 0.0 0.0 0.00 0.22 0.09 79 1009.4
20260507165705 70 270 0.0 0.0 0.00 0.22 0.09 80 1009.4
20260507165607 70 202 0.0 0.0 0.00 0.22 0.09 81 1009.4
20260507165500 70 202 0.0 0.0 0.00 0.22 0.09 80 1009.5
20260507165401 70 202 0.0 0.0 0.00 0.22 0.09 80 1009.4
20260507165301 70 203 0.0 0.0 0.00 0.22 0.09 79 1009.4
20260507165201 70 278 0.0 0.0 0.00 0.22 0.09 79 1009.5
20260507165100 70 275 0.0 0.0 0.00 0.22 0.09 79 1009.6
20260507164957 70 252 0.0 0.0 0.00 0.22 0.09 80 1009.7
20260507164854 70 260 0.0 0.0 0.00 0.22 0.09 81 1009.6
20260507164753 70 260 0.0 0.0 0.00 0.22 0.09 80 1009.6
20260507164653 70 171 0.0 0.0 0.00 0.22 0.09 81 1009.7
20260507164555 70 171 0.0 0.0 0.00 0.22 0.09 80 1009.6
20260507164446 70 222 0.0 0.0 0.00 0.22 0.09 79 1009.5
20260507164345 70 275 0.0 0.0 0.00 0.22 0.09 79 1009.6
20260507164245 70 276 0.0 0.0 0.00 0.22 0.09 79 1009.6
20260507164144 70 310 0.0 0.0 0.00 0.22 0.09 79 1009.6
20260507164045 70 230 0.0 0.0 0.00 0.22 0.09 80 1009.6
20260507163940 70 293 0.0 0.0 0.00 0.22 0.09 79 1009.6
20260507163839 70 291 0.0 0.0 0.00 0.22 0.09 79 1009.7
20260507163738 70 312 0.0 0.0 0.00 0.22 0.09 79 1009.6
20260507163637 70 240 0.0 0.0 0.00 0.22 0.09 79 1009.7
20260507163538 70 165 0.0 0.0 0.00 0.23 0.09 79 1009.6
20260507163435 70 175 0.0 0.0 0.00 0.23 0.09 81 1009.6
20260507163331 70 134 0.0 0.0 0.00 0.23 0.09 79 1009.6
20260507163232 69 134 0.0 0.0 0.00 0.23 0.09 80 1009.7
20260507163132 69 133 0.0 0.0 0.00 0.23 0.09 80 1009.6
20260507163033 69 151 0.0 0.0 0.00 0.23 0.09 83 1009.7
20260507162923 69 148 0.0 0.0 0.00 0.23 0.09 82 1009.6
20260507162822 69 200 0.0 0.0 0.00 0.23 0.09 82 1009.6
20260507162722 69 191 0.0 0.0 0.00 0.23 0.09 83 1009.7
20260507162621 69 172 0.0 0.0 0.00 0.23 0.09 84 1009.8
20260507162523 69 179 0.0 0.0 0.00 0.23 0.09 85 1009.8
20260507162420 69 200 0.0 0.0 0.00 0.23 0.09 84 1009.9
20260507162320 69 215 0.0 0.0 0.00 0.23 0.09 83 1009.8
20260507162219 69 215 0.0 0.0 0.00 0.23 0.09 84 1009.8
20260507162119 69 230 0.0 0.0 0.00 0.23 0.09 83 1009.7
20260507162016 69 230 0.0 0.0 0.00 0.23 0.09 84 1009.7
20260507161911 69 273 0.0 0.0 0.00 0.23 0.09 85 1009.8
20260507161809 69 300 0.0 0.0 0.00 0.23 0.09 85 1009.8
20260507161707 69 36 0.0 0.0 0.00 0.23 0.09 85 1009.8
20260507161607 69 43 0.0 0.0 0.00 0.23 0.09 85 1009.8
20260507161508 69 43 0.0 0.0 0.00 0.23 0.09 85 1009.9
20260507161357 69 43 0.0 0.0 0.00 0.23 0.09 86 1009.9
20260507161258 69 44 0.0 0.0 0.00 0.23 0.09 87 1009.9
20260507161159 69 71 0.0 0.0 0.00 0.23 0.09 88 1009.9
20260507161058 69 49 0.0 0.0 0.00 0.23 0.09 88 1010.0
20260507160958 69 49 0.0 0.0 0.00 0.23 0.09 88 1010.0
20260507160856 68 61 0.0 0.0 0.00 0.23 0.09 87 1009.9
20260507160756 68 97 0.0 0.0 0.00 0.23 0.09 86 1010.0
20260507160653 68 103 0.0 0.0 0.00 0.23 0.09 84 1009.9
20260507160555 68 167 0.0 0.0 0.00 0.23 0.09 84 1009.9
20260507160452 68 167 0.0 0.0 0.00 0.23 0.09 84 1009.8
20260507160352 67 168 0.0 0.0 0.00 0.23 0.09 84 1009.8
20260507160249 67 169 0.0 0.0 0.00 0.23 0.09 83 1009.8
20260507160151 67 169 0.0 0.0 0.00 0.23 0.09 82 1009.9
20260507160049 67 246 0.0 0.0 0.00 0.23 0.09 82 1009.9
20260507155951 67 283 0.0 0.0 0.00 0.23 0.09 81 1009.9
20260507155850 67 283 0.0 0.0 0.00 0.23 0.09 82 1009.9
20260507155747 67 284 0.0 0.0 0.00 0.23 0.09 82 1009.7
20260507155647 68 284 0.0 0.0 0.00 0.23 0.09 83 1009.6
20260507155546 68 284 0.0 0.0 0.00 0.23 0.09 84 1009.7
20260507155445 68 289 0.0 0.0 0.00 0.23 0.09 85 1009.5
20260507155347 68 9 0.0 0.0 0.00 0.23 0.09 84 1009.5
20260507155246 68 0 0.0 0.0 0.00 0.23 0.09 85 1009.5
20260507155147 68 355 0.0 0.0 0.00 0.23 0.09 85 1009.5
20260507155047 68 355 0.0 0.0 0.00 0.23 0.09 84 1009.6
20260507154946 68 290 0.0 0.0 0.00 0.23 0.09 84 1009.6
20260507154844 68 304 0.0 0.0 0.00 0.23 0.09 84 1009.7
20260507154743 68 114 0.0 0.0 0.00 0.23 0.09 84 1009.8
20260507154645 68 113 0.0 0.0 0.00 0.23 0.09 86 1009.8
20260507154544 68 104 0.0 0.0 0.00 0.23 0.09 87 1009.8
20260507154441 68 102 0.0 0.0 0.00 0.23 0.09 86 1009.8
20260507154343 67 102 0.0 0.0 0.00 0.23 0.09 86 1009.7
20260507154242 67 98 0.0 0.0 0.00 0.23 0.09 87 1009.7
20260507154141 67 100 0.0 0.0 0.00 0.23 0.09 87 1009.7
20260507154041 67 99 0.0 0.0 0.00 0.23 0.09 87 1009.7
20260507153943 67 94 0.0 0.0 0.00 0.23 0.09 87 1009.6
20260507153842 67 126 0.0 0.0 0.00 0.23 0.09 86 1009.6
20260507153741 67 125 0.0 0.0 0.00 0.23 0.09 86 1009.7
20260507153641 67 126 0.0 0.0 0.00 0.23 0.09 86 1009.8
20260507153543 67 126 0.0 0.0 0.00 0.23 0.09 86 1009.7
20260507153444 67 171 0.0 0.0 0.00 0.23 0.09 88 1009.7
20260507153343 67 150 0.0 0.0 0.00 0.23 0.09 87 1009.7
20260507153238 67 171 0.0 0.0 0.00 0.23 0.09 88 1009.7
20260507153137 67 171 0.0 0.0 0.00 0.23 0.09 88 1009.7
20260507153039 67 171 0.0 0.0 0.00 0.23 0.09 88 1009.7
20260507152936 67 171 0.0 0.0 0.00 0.23 0.09 88 1009.7
20260507152835 67 184 0.0 0.0 0.00 0.23 0.09 89 1009.8
20260507152737 66 180 0.0 0.0 0.00 0.23 0.09 89 1009.8
20260507152636 66 172 0.0 0.0 0.00 0.23 0.09 89 1009.9
20260507152535 66 171 0.0 0.0 0.00 0.23 0.09 90 1009.9
20260507152436 66 171 0.0 0.0 0.00 0.23 0.09 90 1010.0
20260507152336 66 171 0.0 0.0 0.00 0.23 0.09 90 1010.0
20260507152236 66 110 0.0 0.0 0.00 0.23 0.09 90 1010.0
20260507152136 66 109 0.0 0.0 0.00 0.23 0.09 90 1010.0
20260507152035 66 123 0.0 0.0 0.00 0.23 0.09 90 1010.1
20260507151935 66 153 0.0 0.0 0.00 0.23 0.09 90 1010.0
20260507151835 66 161 0.0 0.0 0.00 0.23 0.09 91 1010.2
20260507151736 66 158 0.0 0.0 0.00 0.23 0.09 91 1010.2
20260507151637 66 165 0.0 0.0 0.00 0.23 0.09 91 1010.1
20260507151535 65 165 0.0 0.0 0.00 0.23 0.09 92 1010.1
20260507151436 65 113 0.0 0.0 0.00 0.23 0.09 92 1010.1
20260507151328 65 154 0.0 0.0 0.00 0.23 0.09 92 1010.1
20260507151228 65 155 0.0 0.0 0.00 0.23 0.09 92 1010.1
20260507151127 65 159 0.0 0.0 0.00 0.23 0.09 93 1010.2
20260507151028 65 157 0.0 0.0 0.00 0.23 0.09 93 1010.1
20260507150929 65 159 0.0 0.0 0.00 0.23 0.09 93 1010.0
20260507150828 65 175 0.0 0.0 0.00 0.23 0.09 94 1010.1
20260507150728 65 183 0.0 0.0 0.00 0.23 0.09 94 1010.1
20260507150627 65 182 0.0 0.0 0.00 0.23 0.09 94 1010.0
20260507150527 64 180 0.0 0.0 0.00 0.23 0.09 94 1010.0
20260507150427 64 128 0.0 0.0 0.00 0.23 0.09 94 1010.0
20260507150328 64 128 0.0 0.0 0.00 0.23 0.09 94 1009.9
20260507150227 64 110 0.0 0.0 0.00 0.23 0.09 94 1009.9
20260507150127 64 48 0.0 0.0 0.00 0.23 0.09 94 1010.0
20260507150028 64 48 0.0 0.0 0.00 0.23 0.09 94 1010.0
20260507145928 63 26 0.0 0.0 0.00 0.23 0.09 94 1010.0
20260507145828 63 86 0.0 0.0 0.00 0.23 0.09 94 1010.0
20260507145727 63 97 0.0 0.0 0.00 0.23 0.09 94 1010.0
20260507145627 63 97 0.0 0.0 0.00 0.23 0.09 94 1010.0
20260507145527 63 97 0.0 0.0 0.00 0.23 0.09 94 1010.0
20260507145427 63 132 0.0 0.0 0.00 0.23 0.09 94 1010.1
20260507145329 63 207 0.0 1.7 0.00 0.23 0.09 94 1010.1
20260507145228 63 298 0.0 2.6 0.00 0.23 0.09 94 1010.1
20260507145128 63 300 0.0 2.6 0.00 0.23 0.09 95 1010.1
20260507145027 63 273 0.0 2.6 0.00 0.23 0.09 95 1010.1
20260507144928 63 272 0.9 2.6 0.00 0.23 0.09 95 1010.1
20260507144829 63 266 0.9 3.5 0.00 0.23 0.09 95 1010.2
20260507144728 63 266 0.9 3.5 0.00 0.23 0.09 95 1010.1
20260507144628 63 268 0.9 3.5 0.00 0.23 0.09 95 1010.2
20260507144527 63 269 0.9 3.5 0.00 0.23 0.09 95 1010.2
20260507144428 62 269 0.9 3.5 0.00 0.23 0.09 95 1010.2
20260507144329 62 271 0.9 3.5 0.00 0.23 0.09 95 1010.2
20260507144227 62 271 0.9 3.5 0.00 0.23 0.09 95 1010.2
20260507144128 62 271 0.9 3.5 0.00 0.23 0.09 95 1010.4
20260507144024 62 297 0.9 5.2 0.00 0.23 0.09 95 1010.2
20260507143923 62 297 0.9 5.2 0.00 0.23 0.09 95 1010.4
20260507143824 62 316 0.9 5.2 0.00 0.23 0.09 95 1010.2
20260507143723 62 287 0.9 5.2 0.00 0.23 0.09 95 1010.2
20260507143623 62 287 0.9 5.2 0.00 0.23 0.09 95 1010.2
20260507143523 62 289 0.9 5.2 0.00 0.23 0.09 95 1010.2
20260507143423 62 292 0.9 5.2 0.00 0.23 0.09 95 1010.4
20260507143323 62 284 0.9 5.2 0.00 0.23 0.09 95 1010.4
20260507143224 62 284 0.9 5.2 0.00 0.23 0.09 95 1010.4
20260507143123 62 284 0.9 5.2 0.00 0.23 0.09 95 1010.4
20260507143024 62 231 0.9 4.3 0.00 0.23 0.09 95 1010.4
20260507142923 62 234 0.9 4.3 0.00 0.23 0.09 95 1010.2
20260507142824 62 232 0.9 4.3 0.00 0.23 0.09 95 1010.4
20260507142724 62 232 0.9 4.3 0.00 0.23 0.09 95 1010.4
20260507142623 62 208 0.9 4.3 0.00 0.23 0.09 95 1010.2
20260507142523 62 216 0.9 4.3 0.00 0.23 0.09 95 1010.4
20260507142424 62 100 0.9 4.3 0.00 0.23 0.09 95 1010.5
20260507142323 62 38 0.9 4.3 0.00 0.23 0.09 95 1010.5
20260507142223 62 15 0.9 4.3 0.00 0.23 0.09 95 1010.5
20260507142123 62 0 0.9 3.5 0.00 0.23 0.09 95 1010.2
20260507142023 62 5 0.9 3.5 0.00 0.23 0.09 95 1010.4
20260507141924 62 5 1.7 3.5 0.00 0.23 0.09 95 1010.4
20260507141823 62 5 0.9 3.5 0.00 0.23 0.09 95 1010.4
20260507141723 62 5 0.9 3.5 0.00 0.23 0.09 95 1010.5
20260507141624 62 348 0.9 3.5 0.00 0.23 0.09 95 1010.4
20260507141525 62 349 0.9 3.5 0.00 0.23 0.09 95 1010.5
20260507141423 62 350 1.7 3.5 0.00 0.23 0.09 95 1010.4
20260507141324 62 350 1.7 3.5 0.00 0.23 0.09 95 1010.5
20260507141224 62 347 1.7 3.5 0.00 0.23 0.09 95 1010.4
20260507141125 62 273 0.9 3.5 0.00 0.23 0.09 95 1010.4
20260507141024 62 321 0.9 3.5 0.00 0.23 0.09 95 1010.5
20260507140924 62 264 0.9 3.5 0.00 0.23 0.09 95 1010.5
20260507140825 62 192 0.9 2.6 0.00 0.23 0.09 95 1010.5
20260507140719 62 238 0.9 2.6 0.00 0.23 0.09 95 1010.5
20260507140620 62 238 0.9 2.6 0.00 0.23 0.09 95 1010.4
20260507140520 62 238 0.9 2.6 0.00 0.23 0.09 95 1010.2
20260507140420 62 259 0.9 2.6 0.00 0.23 0.09 95 1010.1
20260507140320 62 249 0.9 1.7 0.00 0.23 0.09 95 1010.2
20260507140219 62 246 0.9 1.7 0.00 0.23 0.09 95 1010.2
20260507140120 62 240 0.9 1.7 0.00 0.23 0.09 95 1010.1
20260507140020 61 240 0.9 1.7 0.00 0.23 0.09 95 1010.2
20260507135920 62 240 0.9 1.7 0.00 0.23 0.09 95 1010.0
20260507135821 61 239 0.9 1.7 0.00 0.23 0.09 95 1010.0
20260507135719 61 239 0.9 1.7 0.00 0.23 0.09 95 1010.0
20260507135620 61 239 0.9 1.7 0.00 0.23 0.09 95 1009.9
20260507135520 61 239 0.9 2.6 0.00 0.23 0.09 95 1010.0
20260507135420 61 242 0.9 2.6 0.00 0.23 0.09 95 1010.1
20260507135319 61 244 0.9 2.6 0.00 0.23 0.09 95 1010.0
20260507135221 61 246 0.9 2.6 0.00 0.23 0.09 95 1009.9
20260507135119 61 246 0.9 2.6 0.00 0.23 0.09 95 1010.1
20260507135019 61 246 0.9 2.6 0.00 0.23 0.09 96 1010.1
20260507134919 61 246 0.9 2.6 0.00 0.23 0.09 96 1010.1
20260507134821 61 246 0.9 2.6 0.00 0.23 0.09 95 1010.2
20260507134721 61 246 0.9 2.6 0.00 0.23 0.09 96 1010.1
20260507134620 61 246 0.9 2.6 0.00 0.23 0.09 96 1010.2
20260507134519 61 246 0.9 2.6 0.00 0.23 0.09 96 1010.2
20260507134420 61 245 0.9 2.6 0.00 0.23 0.09 96 1010.1
20260507134320 61 245 0.9 2.6 0.00 0.23 0.09 96 1010.1
20260507134220 61 169 0.9 2.6 0.00 0.23 0.09 96 1010.1
20260507134120 61 161 0.0 2.6 0.00 0.23 0.09 96 1010.1
20260507134020 61 174 0.0 2.6 0.00 0.23 0.09 96 1010.1
20260507133920 61 117 0.9 2.6 0.00 0.23 0.09 96 1010.1
20260507133819 61 117 0.9 2.6 0.00 0.23 0.09 96 1010.0
20260507133720 61 114 0.0 2.6 0.01 0.23 0.09 96 1010.0
20260507133621 61 114 0.9 2.6 0.01 0.23 0.09 96 1010.0
20260507133521 61 114 0.9 2.6 0.01 0.23 0.09 96 1010.1
20260507133416 61 114 0.9 3.5 0.01 0.23 0.09 96 1010.1
20260507133316 61 114 0.9 3.5 0.01 0.23 0.09 96 1010.1
20260507133216 61 114 0.9 3.5 0.01 0.23 0.09 96 1010.1
20260507133114 61 114 0.9 3.5 0.01 0.23 0.09 96 1010.0
20260507133011 61 121 0.9 3.5 0.01 0.23 0.09 96 1009.9
20260507132910 61 121 0.9 3.5 0.01 0.23 0.09 96 1009.9
20260507132809 61 157 0.9 3.5 0.01 0.23 0.09 96 1009.9
20260507132710 61 170 0.9 3.5 0.01 0.23 0.09 96 1010.0
20260507132606 61 171 0.9 3.5 0.01 0.23 0.09 96 1010.1
20260507132506 61 171 0.9 3.5 0.01 0.23 0.09 96 1010.1
20260507132358 61 161 0.9 3.5 0.01 0.23 0.09 96 1010.0
20260507132258 61 161 0.9 3.5 0.01 0.23 0.09 96 1010.1
20260507132158 61 125 0.9 2.6 0.01 0.23 0.09 96 1010.1
20260507132056 61 125 0.9 2.6 0.01 0.23 0.09 96 1010.2
20260507131954 61 125 0.9 2.6 0.01 0.23 0.09 96 1010.2
20260507131849 61 118 0.0 2.6 0.02 0.23 0.09 96 1010.4
20260507131748 61 122 0.0 2.6 0.02 0.23 0.09 96 1010.4
20260507131647 61 123 0.0 3.5 0.02 0.23 0.09 96 1010.2
20260507131549 61 121 0.9 3.5 0.02 0.23 0.09 96 1010.4
20260507131445 61 124 0.9 4.3 0.02 0.23 0.09 96 1010.2
20260507131346 61 124 0.9 4.3 0.02 0.23 0.09 96 1010.2
20260507131243 61 180 0.9 4.3 0.02 0.23 0.09 96 1010.2
20260507131143 61 163 0.9 4.3 0.02 0.23 0.09 96 1010.4
20260507131042 61 163 0.9 4.3 0.02 0.23 0.09 96 1010.2
20260507130835 61 163 0.9 4.3 0.03 0.23 0.09 96 1010.1
20260507130733 61 162 0.9 4.3 0.03 0.23 0.09 96 1010.0
20260507130631 61 162 0.9 4.3 0.03 0.23 0.09 96 1010.0
20260507130532 61 162 0.0 4.3 0.03 0.23 0.09 96 1009.8
20260507130430 61 132 0.0 1.7 0.03 0.23 0.09 96 1009.9
20260507130327 61 132 0.0 1.7 0.03 0.23 0.09 96 1009.9
20260507130228 61 132 0.0 1.7 0.03 0.23 0.09 96 1009.9
20260507130125 60 132 0.9 1.7 0.03 0.23 0.09 96 1010.0
20260507130027 60 132 0.9 1.7 0.03 0.23 0.09 96 1010.0
20260507125924 60 127 0.9 1.7 0.04 0.23 0.09 96 1009.8
20260507125824 60 138 0.9 1.7 0.04 0.23 0.09 96 1009.9
20260507125722 60 138 0.9 1.7 0.04 0.23 0.09 96 1009.9
20260507125623 60 131 0.9 1.7 0.04 0.23 0.09 96 1009.8
20260507125519 60 132 0.9 1.7 0.04 0.23 0.09 96 1009.7
20260507125418 60 132 0.9 1.7 0.04 0.23 0.09 96 1009.7
20260507125309 60 132 0.9 1.7 0.04 0.23 0.09 96 1009.9
20260507125207 60 132 0.9 1.7 0.04 0.23 0.09 96 1010.0
20260507125107 60 132 0.9 1.7 0.04 0.23 0.09 96 1010.2
20260507125006 60 132 0.9 1.7 0.04 0.23 0.09 96 1010.2
20260507124905 60 126 0.9 1.7 0.04 0.23 0.09 96 1010.4
20260507124803 60 126 0.9 1.7 0.04 0.23 0.09 96 1010.5
20260507124704 60 126 0.9 1.7 0.04 0.23 0.09 96 1010.5
20260507124602 60 126 0.9 1.7 0.04 0.23 0.09 96 1010.5
20260507124502 60 126 0.0 1.7 0.04 0.23 0.09 96 1010.7
20260507124359 60 126 0.0 1.7 0.04 0.23 0.09 96 1010.7
20260507124256 60 128 0.0 1.7 0.04 0.23 0.09 96 1010.6
20260507124155 60 128 0.0 1.7 0.04 0.23 0.09 96 1010.8
20260507124053 60 128 0.0 2.6 0.04 0.23 0.09 96 1010.7
20260507123954 60 128 0.0 2.6 0.04 0.23 0.09 96 1010.6
20260507123851 60 351 0.9 2.6 0.04 0.23 0.09 96 1010.6
20260507123748 60 351 0.9 2.6 0.04 0.23 0.09 96 1010.7
20260507123646 60 351 0.9 3.5 0.03 0.22 0.09 96 1010.6
20260507123543 60 351 0.9 3.5 0.03 0.22 0.08 96 1010.6
20260507123445 60 351 0.9 3.5 0.03 0.22 0.08 96 1010.5
20260507123341 60 351 1.7 4.3 0.03 0.22 0.08 96 1010.5
20260507123236 60 319 1.7 4.3 0.03 0.22 0.08 96 1010.5
20260507123137 60 325 1.7 4.3 0.03 0.22 0.08 96 1010.5
20260507123037 60 286 1.7 4.3 0.03 0.22 0.08 96 1010.5
20260507122939 60 305 1.7 4.3 0.03 0.22 0.08 96 1010.6
20260507122835 60 171 1.7 4.3 0.04 0.22 0.08 96 1010.5
20260507122737 60 171 1.7 4.3 0.04 0.22 0.08 96 1010.6
20260507122634 60 171 1.7 4.3 0.04 0.22 0.08 96 1010.6
20260507122531 60 171 1.7 4.3 0.04 0.22 0.08 96 1010.6
20260507122433 60 172 1.7 4.3 0.04 0.22 0.08 96 1010.6
20260507122330 60 162 1.7 4.3 0.04 0.22 0.08 96 1010.6
20260507122219 60 162 1.7 4.3 0.04 0.22 0.08 96 1010.6
20260507122118 60 157 1.7 4.3 0.04 0.22 0.08 96 1010.7
20260507122020 60 155 1.7 4.3 0.04 0.22 0.08 96 1010.8
20260507121919 60 155 1.7 4.3 0.04 0.22 0.08 96 1010.8
20260507121819 60 154 1.7 4.3 0.03 0.21 0.08 96 1010.9
20260507121718 60 153 1.7 4.3 0.03 0.21 0.07 96 1010.8
20260507121616 60 124 1.7 3.5 0.03 0.21 0.07 96 1010.9
20260507121515 60 123 1.7 3.5 0.03 0.21 0.07 96 1011.0
20260507121414 60 123 1.7 5.2 0.04 0.21 0.07 96 1011.0
20260507121312 60 110 1.7 5.2 0.04 0.21 0.07 96 1011.0
20260507121207 60 149 1.7 5.2 0.04 0.21 0.07 96 1011.1
20260507121108 60 151 1.7 5.2 0.04 0.21 0.07 96 1011.2
20260507121007 60 151 1.7 5.2 0.03 0.20 0.06 96 1011.2
20260507120908 60 165 1.7 5.2 0.03 0.20 0.06 96 1011.3
20260507120805 60 192 0.9 5.2 0.03 0.20 0.06 96 1011.3
20260507120659 60 193 0.9 5.2 0.03 0.20 0.06 96 1011.3
20260507120559 60 188 0.9 5.2 0.03 0.20 0.06 96 1011.4
20260507120500 60 140 1.7 5.2 0.03 0.20 0.06 96 1011.5
20260507120358 60 135 1.7 8.7 0.03 0.20 0.06 96 1011.6
20260507120256 60 178 1.7 8.7 0.03 0.20 0.06 96 1011.6
20260507120150 60 162 1.7 8.7 0.03 0.20 0.06 96 1011.6
20260507120051 60 161 1.7 8.7 0.04 0.20 0.06 96 1011.7
20260507115951 60 169 1.7 8.7 0.03 0.19 0.06 96 1011.6
20260507115851 60 115 0.9 8.7 0.03 0.19 0.05 96 1011.6
20260507115750 60 164 0.9 8.7 0.03 0.19 0.05 96 1011.6
20260507115645 60 179 0.9 8.7 0.03 0.19 0.05 96 1011.6
20260507115545 60 177 0.9 8.7 0.03 0.19 0.05 96 1011.5
20260507115446 60 162 0.9 8.7 0.03 0.19 0.05 96 1011.4
20260507115346 60 198 0.9 4.3 0.03 0.19 0.05 96 1011.6
20260507115243 60 165 0.9 3.5 0.03 0.19 0.05 96 1011.5
20260507115133 60 123 0.0 1.7 0.03 0.19 0.05 96 1011.4
20260507115033 60 123 0.9 1.7 0.03 0.19 0.05 96 1011.4
20260507114934 60 123 0.0 1.7 0.03 0.19 0.05 96 1011.4
20260507114834 60 123 0.9 1.7 0.03 0.19 0.05 96 1011.3
20260507114731 60 123 0.9 1.7 0.03 0.19 0.05 96 1011.3
20260507114632 60 123 0.9 1.7 0.03 0.19 0.05 96 1011.2
20260507114529 60 123 0.9 1.7 0.03 0.19 0.05 96 1011.1
20260507114430 60 123 0.9 3.5 0.03 0.19 0.05 96 1011.1
20260507114328 60 186 0.9 3.5 0.03 0.19 0.05 96 1011.1
20260507114226 60 186 0.9 3.5 0.03 0.19 0.05 96 1011.1
20260507114120 60 176 0.9 3.5 0.03 0.19 0.05 96 1011.0
20260507114019 60 179 0.9 3.5 0.03 0.19 0.05 96 1011.0
20260507113920 60 188 1.7 4.3 0.03 0.19 0.05 96 1011.0
20260507113819 60 184 1.7 4.3 0.03 0.19 0.05 96 1010.9
20260507113719 60 169 1.7 4.3 0.03 0.19 0.05 96 1010.8
20260507113613 60 169 1.7 4.3 0.03 0.19 0.05 96 1010.8
20260507113514 60 172 1.7 4.3 0.03 0.19 0.05 96 1010.9
20260507113413 60 184 1.7 4.3 0.03 0.19 0.05 96 1010.8
20260507113311 60 184 1.7 4.3 0.03 0.19 0.05 96 1010.8
20260507113210 60 180 1.7 4.3 0.03 0.19 0.05 96 1010.7
20260507113104 60 169 1.7 4.3 0.03 0.19 0.05 96 1010.7
20260507113005 60 166 1.7 4.3 0.03 0.19 0.05 96 1010.6
20260507112903 60 160 1.7 4.3 0.03 0.19 0.05 96 1010.6
20260507112805 60 160 1.7 4.3 0.02 0.18 0.04 96 1010.6
20260507112703 60 156 1.7 4.3 0.02 0.18 0.04 96 1010.7
20260507112559 60 153 1.7 4.3 0.02 0.18 0.04 96 1010.7
20260507112459 60 153 1.7 4.3 0.02 0.18 0.04 96 1010.7
20260507112359 60 134 1.7 4.3 0.02 0.18 0.04 96 1010.8
20260507112300 60 134 1.7 4.3 0.02 0.18 0.04 96 1010.8
20260507112158 60 169 1.7 4.3 0.02 0.18 0.04 96 1010.9
20260507112049 60 148 1.7 4.3 0.02 0.18 0.04 96 1010.9
20260507111951 60 170 1.7 4.3 0.02 0.18 0.04 96 1010.9
20260507111850 60 170 0.9 4.3 0.02 0.18 0.04 96 1011.0
20260507111750 60 164 0.9 3.5 0.02 0.18 0.04 96 1011.0
20260507111648 60 144 0.9 2.6 0.02 0.18 0.04 96 1011.2
20260507111540 60 212 0.9 2.6 0.02 0.18 0.04 96 1011.1
20260507111441 60 207 0.9 2.6 0.02 0.18 0.04 96 1011.1
20260507111341 60 208 0.9 2.6 0.01 0.17 0.04 96 1011.1
20260507111240 60 212 0.9 2.6 0.01 0.17 0.03 96 1011.0
20260507111141 60 213 0.9 2.6 0.01 0.17 0.03 96 1011.1
20260507111041 60 214 0.9 2.6 0.01 0.17 0.03 96 1011.0
20260507110939 60 214 0.9 2.6 0.01 0.17 0.03 96 1011.0
20260507110838 60 238 0.9 2.6 0.01 0.17 0.03 96 1011.0
20260507110738 60 252 0.9 2.6 0.01 0.17 0.03 96 1011.0
20260507110636 60 261 0.9 2.6 0.01 0.17 0.03 96 1011.0
20260507110527 60 261 0.9 2.6 0.01 0.17 0.03 96 1010.9
20260507110426 60 279 0.9 2.6 0.01 0.17 0.03 96 1010.9
20260507110325 60 82 0.9 1.7 0.01 0.17 0.03 96 1010.9
20260507110226 60 99 0.9 1.7 0.01 0.17 0.03 96 1010.9
20260507110125 60 98 0.9 1.7 0.00 0.16 0.03 96 1010.8
20260507110020 60 118 0.9 1.7 0.00 0.16 0.02 96 1010.7
20260507105920 60 118 0.9 1.7 0.00 0.16 0.02 96 1010.6
20260507105819 60 117 0.0 1.7 0.00 0.16 0.02 96 1010.7
20260507105718 60 117 0.0 1.7 0.00 0.16 0.02 96 1010.6
20260507105619 60 343 0.0 1.7 0.00 0.16 0.02 96 1010.6
20260507105519 60 342 0.0 1.7 0.00 0.16 0.02 96 1010.5
20260507105417 60 343 0.0 1.7 0.00 0.16 0.02 96 1010.4
20260507105317 60 343 0.0 1.7 0.00 0.16 0.02 96 1010.5
20260507105215 60 343 0.0 1.7 0.00 0.16 0.02 96 1010.4
20260507105113 60 343 0.0 1.7 0.00 0.16 0.02 96 1010.4
20260507105004 60 343 0.0 1.7 0.00 0.16 0.02 96 1010.4
20260507104903 60 343 0.0 1.7 0.00 0.16 0.02 96 1010.2
20260507104804 60 343 0.0 1.7 0.00 0.16 0.02 96 1010.4
20260507104703 60 290 0.0 1.7 0.00 0.16 0.02 96 1010.4
20260507104603 60 279 0.0 1.7 0.00 0.16 0.02 96 1010.4
20260507104501 60 134 0.0 1.7 0.00 0.16 0.02 96 1010.2
20260507104401 60 135 0.0 1.7 0.00 0.16 0.02 96 1010.4
20260507104302 60 137 0.0 1.7 0.00 0.16 0.02 96 1010.2
20260507104159 60 137 0.9 2.6 0.00 0.16 0.02 96 1010.4
20260507104058 60 137 0.9 2.6 0.00 0.16 0.02 96 1010.2
20260507103957 60 137 0.9 2.6 0.00 0.16 0.02 96 1010.2
20260507103856 60 137 0.9 2.6 0.00 0.16 0.02 96 1010.2
20260507103753 60 137 0.9 2.6 0.00 0.16 0.02 96 1010.1
20260507103654 60 137 0.9 2.6 0.00 0.16 0.02 96 1010.1
20260507103551 60 137 0.9 2.6 0.00 0.16 0.02 96 1010.1
20260507103443 60 110 0.9 2.6 0.00 0.16 0.02 96 1010.0
20260507103342 60 110 0.9 2.6 0.00 0.16 0.02 96 1010.0
20260507103242 60 111 0.0 2.6 0.00 0.16 0.02 96 1010.0
20260507103142 60 111 0.0 2.6 0.00 0.16 0.02 96 1010.1
20260507103042 60 111 0.0 2.6 0.00 0.16 0.02 96 1010.2
20260507102941 60 111 0.9 2.6 0.00 0.16 0.02 96 1010.2
20260507102840 60 111 0.9 2.6 0.00 0.16 0.02 96 1010.2
20260507102740 60 111 0.9 2.6 0.00 0.16 0.02 96 1010.2
20260507102638 60 113 0.9 2.6 0.00 0.16 0.02 96 1010.1
20260507102536 60 113 0.9 2.6 0.00 0.16 0.02 96 1010.0
20260507102429 60 138 0.0 2.6 0.00 0.16 0.02 96 1010.0
20260507102329 60 138 0.9 2.6 0.00 0.16 0.02 96 1009.9
20260507102230 60 138 0.9 2.6 0.00 0.16 0.02 96 1009.9
20260507102129 60 138 0.0 2.6 0.00 0.16 0.02 96 1009.9
20260507102031 60 138 0.0 2.6 0.00 0.16 0.02 96 1010.1
20260507101920 60 138 0.0 1.7 0.00 0.16 0.02 96 1010.2
20260507101820 60 220 0.0 1.7 0.00 0.16 0.02 96 1010.2
20260507101719 60 242 0.0 1.7 0.00 0.16 0.02 96 1010.4
20260507101619 60 242 0.0 1.7 0.00 0.16 0.02 96 1010.2
20260507101520 60 243 0.0 1.7 0.00 0.16 0.02 96 1010.2
20260507101416 60 243 0.0 1.7 0.00 0.16 0.02 96 1010.2
20260507101315 60 242 0.0 2.6 0.00 0.16 0.02 96 1010.5
20260507101216 60 243 0.0 2.6 0.00 0.16 0.02 96 1010.4
20260507101116 60 242 0.0 2.6 0.00 0.16 0.02 96 1010.4
20260507101014 60 242 0.0 2.6 0.00 0.16 0.02 96 1010.2
20260507100913 60 242 0.0 2.6 0.00 0.16 0.02 96 1010.5
20260507100812 60 242 0.0 2.6 0.00 0.16 0.02 96 1010.4
20260507100711 60 242 0.0 2.6 0.00 0.16 0.02 96 1010.2
20260507100610 60 242 0.0 2.6 0.00 0.16 0.02 96 1010.2
20260507100508 60 242 0.0 2.6 0.00 0.16 0.02 96 1010.4
20260507100400 60 242 0.0 2.6 0.00 0.16 0.02 96 1010.4
20260507100259 60 205 0.0 1.7 0.00 0.16 0.02 96 1010.6
20260507100158 60 205 0.0 1.7 0.00 0.16 0.02 96 1010.6
20260507100100 60 205 0.9 2.6 0.00 0.16 0.02 96 1010.6
20260507095957 60 205 0.9 2.6 0.00 0.16 0.02 96 1010.5
20260507095852 60 205 0.9 2.6 0.00 0.16 0.02 96 1010.4
20260507095752 60 205 0.9 2.6 0.00 0.16 0.02 96 1010.5
20260507095651 60 205 0.9 2.6 0.00 0.16 0.02 96 1010.2
20260507095551 60 205 0.9 2.6 0.00 0.16 0.02 96 1010.2
20260507095451 60 205 0.9 2.6 0.00 0.16 0.02 96 1010.1
20260507095351 60 205 0.9 2.6 0.00 0.16 0.02 96 1010.1
20260507095250 60 205 0.9 2.6 0.00 0.16 0.02 96 1010.1
20260507095148 60 205 0.0 2.6 0.00 0.16 0.02 96 1010.1
20260507095048 60 205 0.0 2.6 0.00 0.16 0.02 96 1010.0
20260507094945 60 181 0.0 2.6 0.00 0.16 0.02 96 1010.1
20260507094840 60 181 0.0 1.7 0.00 0.16 0.02 96 1010.0
20260507094740 60 207 0.0 1.7 0.00 0.16 0.02 96 1010.1
20260507094640 60 207 0.0 1.7 0.00 0.16 0.02 96 1010.1
20260507094538 60 207 0.0 1.7 0.00 0.16 0.02 96 1010.1
20260507094435 60 207 0.0 1.7 0.00 0.16 0.02 96 1010.1
20260507094336 60 207 0.0 0.9 0.00 0.16 0.02 96 1010.1
20260507094234 60 207 0.0 2.6 0.00 0.16 0.02 96 1010.1
20260507094134 60 207 0.0 2.6 0.00 0.16 0.02 96 1010.1
20260507094032 60 207 0.9 2.6 0.00 0.16 0.02 96 1010.1
20260507093930 60 207 0.9 2.6 0.00 0.16 0.02 96 1010.1
20260507093827 60 207 0.9 2.6 0.00 0.16 0.02 96 1010.1
20260507093723 60 207 0.9 2.6 0.00 0.16 0.02 96 1010.0
20260507093623 60 207 0.9 2.6 0.00 0.16 0.02 96 1010.2
20260507093525 60 207 0.9 2.6 0.00 0.16 0.02 96 1010.2
20260507093424 60 167 0.9 2.6 0.00 0.16 0.02 96 1010.2
20260507093319 60 167 0.9 2.6 0.00 0.16 0.02 96 1010.2
20260507093217 60 167 0.0 2.6 0.00 0.16 0.02 96 1010.4
20260507093118 60 167 0.0 2.6 0.00 0.16 0.02 96 1010.4
20260507093016 60 167 0.0 0.9 0.00 0.16 0.02 96 1010.5
20260507092914 60 167 0.0 0.9 0.00 0.16 0.02 96 1010.5
20260507092811 60 167 0.0 0.9 0.00 0.16 0.02 96 1010.6
20260507092712 60 167 0.0 1.7 0.00 0.16 0.02 96 1010.6
20260507092611 60 169 0.0 1.7 0.00 0.16 0.02 96 1010.5
20260507092510 60 169 0.0 1.7 0.00 0.16 0.02 96 1010.6
20260507092408 60 169 0.0 1.7 0.00 0.16 0.02 96 1010.6
20260507092306 60 169 0.9 1.7 0.00 0.16 0.02 96 1010.5
20260507092201 60 169 0.9 1.7 0.00 0.16 0.02 96 1010.6
20260507092100 60 169 0.9 1.7 0.00 0.16 0.02 96 1010.5
20260507092001 60 169 0.9 1.7 0.00 0.16 0.02 96 1010.2
20260507091902 60 170 0.9 1.7 0.00 0.16 0.02 96 1010.4
20260507091752 60 170 0.9 1.7 0.00 0.16 0.02 96 1010.4
20260507091652 60 171 0.9 1.7 0.00 0.16 0.02 96 1010.5
20260507091551 60 171 0.9 2.6 0.00 0.16 0.02 96 1010.4
20260507091450 60 171 0.9 2.6 0.00 0.16 0.02 96 1010.2
20260507091351 60 220 0.9 2.6 0.00 0.16 0.02 96 1010.4
20260507091248 60 222 0.9 2.6 0.00 0.16 0.02 96 1010.4
20260507091146 60 207 0.9 3.5 0.00 0.16 0.02 96 1010.4
20260507091045 60 159 0.9 4.3 0.00 0.16 0.02 96 1010.2
20260507090944 60 159 1.7 4.3 0.00 0.16 0.02 96 1010.4
20260507090846 60 159 1.7 4.3 0.00 0.16 0.02 96 1010.2
20260507090742 60 159 1.7 5.2 0.00 0.16 0.02 96 1010.2
20260507090639 60 157 1.7 5.2 0.00 0.16 0.02 96 1010.1
20260507090540 60 155 1.7 5.2 0.00 0.16 0.02 96 1010.1
20260507090440 60 155 1.7 5.2 0.00 0.16 0.02 96 1010.1
20260507090339 60 155 1.7 5.2 0.00 0.16 0.02 96 1010.1
20260507090236 60 156 1.7 5.2 0.00 0.16 0.02 96 1010.2
20260507090132 60 161 1.7 5.2 0.00 0.16 0.02 96 1010.4
20260507090033 60 157 1.7 5.2 0.00 0.16 0.02 96 1010.4
20260507085932 60 169 1.7 5.2 0.00 0.16 0.02 96 1010.5
20260507085829 60 169 1.7 5.2 0.00 0.16 0.02 96 1010.4
20260507085726 60 191 1.7 4.3 0.00 0.16 0.02 96 1010.5
20260507085628 60 175 1.7 4.3 0.00 0.16 0.02 96 1010.2
20260507085527 60 165 0.9 4.3 0.00 0.16 0.02 96 1010.4
20260507085427 60 111 0.9 4.3 0.00 0.16 0.02 96 1010.4
20260507085327 60 107 0.9 4.3 0.00 0.16 0.02 96 1010.4
20260507085216 60 98 0.9 4.3 0.00 0.16 0.02 96 1010.4
20260507085113 60 167 0.9 4.3 0.00 0.16 0.02 96 1010.2
20260507085014 60 169 0.9 4.3 0.00 0.16 0.02 96 1010.2
20260507084913 60 82 0.9 2.6 0.00 0.16 0.02 96 1010.1
20260507084814 60 53 0.9 2.6 0.00 0.16 0.02 96 1010.2
20260507084702 60 201 0.9 2.6 0.00 0.16 0.02 96 1010.1
20260507084603 60 207 0.9 2.6 0.00 0.16 0.02 96 1010.2
20260507084503 60 207 0.9 2.6 0.00 0.16 0.02 96 1010.2
20260507084402 60 207 0.9 2.6 0.00 0.16 0.02 96 1010.2
20260507084303 60 207 0.9 2.6 0.00 0.16 0.02 96 1010.4
20260507084157 60 207 0.9 2.6 0.00 0.16 0.02 96 1010.2
20260507084057 60 207 0.9 2.6 0.00 0.16 0.02 96 1010.2
20260507083958 60 208 0.9 2.6 0.00 0.16 0.02 96 1010.1
20260507083858 60 213 0.9 2.6 0.00 0.16 0.02 96 1010.1
20260507083757 60 228 0.9 5.2 0.00 0.16 0.02 96 1010.0
20260507083658 60 234 0.9 5.2 0.00 0.16 0.02 96 1010.1
20260507083555 60 234 0.9 5.2 0.00 0.16 0.02 96 1010.2
20260507083455 60 236 0.9 5.2 0.00 0.16 0.02 96 1010.4
20260507083354 60 236 0.9 5.2 0.00 0.16 0.02 96 1010.6
20260507083252 60 219 0.9 5.2 0.00 0.16 0.02 96 1010.7
20260507083144 60 219 0.9 5.2 0.00 0.16 0.02 96 1010.8
20260507083045 60 227 0.9 5.2 0.00 0.16 0.02 96 1010.7
20260507082946 60 227 0.9 5.2 0.00 0.16 0.02 96 1010.9
20260507082844 60 281 0.9 3.5 0.00 0.16 0.02 96 1010.9
20260507082741 60 279 0.9 3.5 0.00 0.16 0.02 96 1010.9
20260507082639 60 279 0.9 3.5 0.00 0.16 0.02 96 1011.0
20260507082540 60 157 0.9 3.5 0.00 0.16 0.02 96 1011.0
20260507082437 60 142 0.9 3.5 0.00 0.16 0.02 96 1011.0
20260507082336 60 142 0.9 3.5 0.00 0.16 0.02 96 1011.0
20260507082235 60 142 0.9 3.5 0.00 0.16 0.02 96 1011.1
20260507082130 60 142 0.9 3.5 0.00 0.16 0.02 96 1011.1
20260507082028 60 143 0.9 3.5 0.00 0.16 0.02 96 1011.1
20260507081930 60 138 0.9 3.5 0.00 0.16 0.02 96 1011.1
20260507081829 60 310 0.9 3.5 0.00 0.16 0.02 95 1011.0
20260507081730 60 313 0.9 3.5 0.00 0.16 0.02 96 1011.0
20260507081623 60 278 0.9 3.5 0.00 0.16 0.02 96 1011.0
20260507081524 60 277 0.9 3.5 0.00 0.16 0.02 96 1010.9
20260507081424 60 277 1.7 6.1 0.00 0.16 0.02 96 1010.9
20260507081321 60 280 1.7 6.1 0.00 0.16 0.02 96 1010.9
20260507081219 60 277 1.7 6.1 0.00 0.16 0.02 96 1010.9
20260507081118 60 277 1.7 6.1 0.00 0.16 0.02 95 1010.8
20260507081017 60 288 1.7 6.1 0.00 0.16 0.02 95 1010.9
20260507080917 60 288 1.7 6.1 0.00 0.16 0.02 95 1010.9
20260507080815 60 286 1.7 6.1 0.00 0.16 0.02 96 1010.9
20260507080713 60 287 1.7 6.1 0.00 0.16 0.02 96 1010.9
20260507080610 60 288 1.7 6.1 0.00 0.16 0.02 95 1010.9
20260507080511 60 288 0.9 6.1 0.00 0.16 0.02 95 1010.9
20260507080410 60 322 0.9 3.5 0.00 0.16 0.02 95 1010.9
20260507080310 60 329 0.9 3.5 0.00 0.16 0.02 95 1010.8
20260507080208 60 99 0.9 2.6 0.00 0.16 0.02 95 1010.8
20260507075957 60 100 0.9 2.6 0.00 0.16 0.02 95 1010.7
20260507075857 60 101 0.9 2.6 0.00 0.16 0.02 95 1010.6
20260507075756 60 111 0.9 2.6 0.00 0.16 0.02 95 1010.6
20260507075552 60 96 0.9 2.6 0.00 0.16 0.02 95 1010.6
20260507075453 60 96 0.9 2.6 0.00 0.16 0.02 95 1010.6
20260507075354 60 96 0.9 2.6 0.00 0.16 0.02 95 1010.6
20260507075253 60 62 0.9 2.6 0.00 0.16 0.02 95 1010.6
20260507075152 60 61 0.9 2.6 0.00 0.16 0.02 95 1010.6
20260507075046 60 77 0.9 2.6 0.00 0.16 0.02 95 1010.5
20260507074945 60 77 0.9 2.6 0.00 0.16 0.02 95 1010.5
20260507074846 60 76 0.9 2.6 0.00 0.16 0.02 95 1010.5
20260507074745 60 76 0.9 3.5 0.00 0.16 0.02 95 1010.6
20260507074645 60 105 0.9 3.5 0.00 0.16 0.02 95 1010.5
20260507074538 60 105 0.9 3.5 0.00 0.16 0.02 95 1010.6
20260507074440 60 105 0.9 3.5 0.00 0.16 0.02 95 1010.6
20260507074338 60 105 0.9 3.5 0.00 0.16 0.02 95 1010.6
20260507074237 60 105 0.9 3.5 0.00 0.16 0.02 95 1010.7
20260507074135 60 355 0.9 3.5 0.00 0.16 0.02 95 1010.6
20260507074031 60 339 0.9 3.5 0.00 0.16 0.02 95 1010.7
20260507073932 60 337 0.9 3.5 0.00 0.16 0.02 96 1010.7
20260507073830 60 161 0.9 3.5 0.00 0.16 0.02 95 1010.7
20260507073731 60 154 0.9 3.5 0.00 0.16 0.02 95 1010.7
20260507073630 60 162 0.9 3.5 0.00 0.16 0.02 96 1010.7
20260507073526 60 163 0.9 3.5 0.00 0.16 0.02 96 1010.7
20260507073422 60 163 0.9 3.5 0.00 0.16 0.02 96 1010.6
20260507073324 60 163 0.9 3.5 0.00 0.16 0.02 96 1010.6
20260507073223 60 163 0.9 3.5 0.00 0.16 0.02 96 1010.6
20260507073123 60 166 0.9 3.5 0.00 0.16 0.02 95 1010.6
20260507073016 60 173 0.9 2.6 0.00 0.16 0.02 96 1010.6
20260507072918 60 222 0.0 2.6 0.00 0.16 0.02 96 1010.6
20260507072817 60 222 0.0 2.6 0.00 0.16 0.02 96 1010.7
20260507072716 60 246 0.0 2.6 0.00 0.16 0.02 96 1010.7
20260507072614 60 247 0.9 2.6 0.00 0.16 0.02 96 1010.6
20260507072509 60 246 0.9 2.6 0.00 0.16 0.02 96 1010.5
20260507072408 60 248 0.9 2.6 0.00 0.16 0.02 96 1010.7
20260507072308 60 296 0.9 5.2 0.00 0.16 0.02 96 1010.5
20260507072208 60 196 0.9 5.2 0.00 0.16 0.02 96 1010.5
20260507072107 60 167 1.7 5.2 0.00 0.16 0.02 96 1010.5
20260507072002 60 167 1.7 5.2 0.00 0.16 0.02 96 1010.4
20260507071901 60 167 1.7 5.2 0.00 0.16 0.02 96 1010.5
20260507071802 60 170 1.7 5.2 0.00 0.16 0.02 96 1010.5
20260507071701 60 173 1.7 5.2 0.00 0.16 0.02 96 1010.6
20260507071602 60 174 1.7 5.2 0.00 0.16 0.02 96 1010.6
20260507071454 60 174 1.7 7.0 0.00 0.16 0.02 96 1010.6
20260507071355 61 174 0.9 7.0 0.00 0.16 0.02 96 1010.8
20260507071254 60 191 0.9 7.0 0.00 0.16 0.02 96 1010.8
20260507071153 60 193 0.9 7.0 0.00 0.16 0.02 96 1010.9
20260507071051 60 282 0.9 7.0 0.00 0.16 0.02 96 1011.0
20260507070947 60 221 0.9 7.0 0.00 0.16 0.02 96 1011.1
20260507070845 60 221 0.9 7.0 0.00 0.16 0.02 96 1011.2
20260507070746 61 271 0.9 7.0 0.00 0.16 0.02 96 1011.2
20260507070644 61 272 0.9 7.0 0.00 0.16 0.02 96 1011.2
20260507070545 60 236 0.9 2.6 0.00 0.16 0.02 96 1011.3
20260507070442 60 244 0.9 2.6 0.00 0.16 0.02 96 1011.3
20260507070340 61 246 0.9 2.6 0.00 0.16 0.02 96 1011.2
20260507070241 60 302 0.9 2.6 0.00 0.16 0.02 96 1011.2
20260507070141 60 302 0.9 2.6 0.00 0.16 0.02 96 1011.1
20260507070041 61 302 0.9 3.5 0.00 0.16 0.02 96 1011.1
20260507065942 61 198 1.7 3.5 0.00 0.16 0.02 96 1011.1
20260507065841 61 196 1.7 3.5 0.00 0.16 0.02 96 1011.0
20260507065739 61 196 1.7 7.0 0.00 0.16 0.02 96 1011.1
20260507065639 61 287 1.7 7.0 0.00 0.16 0.02 96 1011.2
20260507065539 61 288 1.7 7.0 0.00 0.16 0.02 96 1011.1
20260507065438 61 180 1.7 7.0 0.00 0.16 0.02 96 1011.1
20260507065335 61 179 1.7 7.0 0.00 0.16 0.02 96 1011.1
20260507065234 61 182 1.7 7.0 0.00 0.16 0.02 96 1011.0
20260507065132 61 188 2.6 7.0 0.00 0.16 0.02 96 1011.0
20260507065032 61 177 1.7 7.0 0.00 0.16 0.02 96 1011.0
20260507064932 61 178 1.7 7.0 0.00 0.16 0.02 96 1011.1
20260507064833 61 150 1.7 7.0 0.00 0.16 0.02 96 1011.2
20260507064732 61 167 1.7 6.1 0.00 0.16 0.02 96 1011.3
20260507064634 61 167 1.7 6.1 0.00 0.16 0.02 96 1011.3
20260507064532 61 40 1.7 6.1 0.00 0.16 0.02 96 1011.3
20260507064432 61 179 1.7 6.1 0.00 0.16 0.02 96 1011.2
20260507064331 61 156 1.7 6.1 0.00 0.16 0.02 96 1011.3
20260507064228 61 172 0.9 6.1 0.00 0.16 0.02 96 1011.3
20260507064124 61 178 0.9 6.1 0.00 0.16 0.02 95 1011.2
20260507064025 61 165 0.9 5.2 0.00 0.16 0.02 95 1011.3
20260507063925 61 154 0.9 3.5 0.00 0.16 0.02 95 1011.4
20260507063825 61 142 0.9 3.5 0.00 0.16 0.02 95 1011.4
20260507063720 61 142 0.9 3.5 0.00 0.16 0.02 95 1011.3
20260507063619 61 142 0.9 3.5 0.00 0.16 0.02 95 1011.2
20260507063519 61 141 0.9 7.0 0.00 0.16 0.02 95 1011.3
20260507063419 61 125 0.9 7.0 0.00 0.16 0.02 95 1011.3
20260507063319 61 124 0.9 7.0 0.00 0.16 0.02 95 1011.2
20260507063217 61 126 0.9 7.0 0.00 0.16 0.02 95 1011.3
20260507063116 61 126 0.9 7.0 0.00 0.16 0.02 95 1011.3
20260507063016 61 192 1.7 7.0 0.00 0.16 0.02 95 1011.3
20260507062914 61 192 1.7 7.0 0.00 0.16 0.02 95 1011.3
20260507062816 61 192 1.7 7.0 0.00 0.16 0.02 95 1011.3
20260507062715 61 169 1.7 7.0 0.00 0.16 0.02 95 1011.3
20260507062614 61 170 2.6 7.0 0.00 0.16 0.02 95 1011.3
20260507062515 61 184 1.7 6.1 0.00 0.16 0.02 95 1011.3
20260507062414 61 177 1.7 6.1 0.00 0.16 0.02 95 1011.3
20260507062312 61 157 1.7 6.1 0.00 0.16 0.02 95 1011.3
20260507062211 61 153 1.7 6.1 0.00 0.16 0.02 95 1011.3
20260507062110 61 183 2.6 6.1 0.00 0.16 0.02 95 1011.4
20260507062011 61 190 2.6 6.1 0.01 0.16 0.02 95 1011.2
20260507061912 61 128 2.6 6.1 0.01 0.16 0.02 95 1011.3
20260507061810 61 184 2.6 6.1 0.01 0.16 0.02 95 1011.4
20260507061709 61 175 2.6 6.1 0.01 0.16 0.02 95 1011.4
20260507061607 61 192 2.6 6.1 0.01 0.16 0.02 96 1011.4
20260507061507 61 190 2.6 6.1 0.01 0.16 0.02 95 1011.4
20260507061408 61 182 1.7 6.1 0.01 0.16 0.02 95 1011.5
20260507061306 61 275 1.7 6.1 0.01 0.16 0.02 95 1011.4
20260507061206 61 199 1.7 7.8 0.01 0.16 0.02 96 1011.4
20260507061105 61 187 2.6 7.8 0.01 0.16 0.02 95 1011.3
20260507060959 61 188 2.6 7.8 0.01 0.16 0.02 95 1011.3
20260507060858 61 220 2.6 9.6 0.01 0.16 0.02 95 1011.3
20260507060800 61 163 3.5 10.4 0.01 0.16 0.02 95 1011.3
20260507060658 61 194 3.5 10.4 0.01 0.16 0.02 96 1011.3
20260507060559 61 238 3.5 10.4 0.01 0.16 0.02 96 1011.3
20260507060459 61 184 4.3 10.4 0.01 0.16 0.02 95 1011.2
20260507060357 61 199 4.3 13.0 0.01 0.16 0.02 96 1011.3
20260507060256 61 232 4.3 13.0 0.01 0.16 0.02 95 1011.3
20260507060157 61 181 5.2 13.0 0.01 0.16 0.02 96 1011.3
20260507060057 61 221 5.2 13.0 0.01 0.16 0.02 95 1011.3
20260507055957 61 159 5.2 13.0 0.01 0.16 0.02 95 1011.3
20260507055856 61 212 5.2 13.0 0.01 0.16 0.02 95 1011.3
20260507055757 61 199 5.2 13.0 0.01 0.16 0.02 95 1011.4
20260507055658 61 174 5.2 13.9 0.01 0.16 0.02 95 1011.4
20260507055558 61 196 5.2 13.9 0.01 0.16 0.02 95 1011.4
20260507055456 61 161 5.2 13.9 0.01 0.16 0.02 95 1011.4
20260507055357 61 200 4.3 13.9 0.01 0.16 0.02 95 1011.4
20260507055258 61 155 4.3 13.9 0.01 0.16 0.02 95 1011.5
20260507055157 61 172 4.3 13.9 0.01 0.16 0.02 95 1011.5
20260507055057 61 161 4.3 13.9 0.01 0.16 0.02 95 1011.6
20260507054956 61 188 4.3 13.9 0.01 0.16 0.02 95 1011.7
20260507054858 61 173 3.5 13.9 0.01 0.16 0.02 95 1011.7
20260507054757 61 166 3.5 13.9 0.01 0.16 0.02 95 1011.8
20260507054657 61 198 3.5 9.6 0.01 0.16 0.02 95 1012.0
20260507054558 61 162 3.5 9.6 0.01 0.16 0.02 95 1012.1
20260507054457 61 135 3.5 9.6 0.01 0.16 0.02 95 1012.1
20260507054357 61 154 2.6 9.6 0.01 0.16 0.02 95 1012.1
20260507054256 61 162 2.6 9.6 0.01 0.16 0.02 95 1012.2
20260507054157 61 156 2.6 7.8 0.01 0.16 0.02 95 1012.2
20260507054050 61 171 2.6 7.8 0.01 0.16 0.02 95 1012.3
20260507053950 61 182 2.6 7.8 0.01 0.16 0.02 95 1012.4
20260507053851 61 139 2.6 7.8 0.01 0.16 0.02 95 1012.5
20260507053750 61 169 1.7 7.8 0.01 0.16 0.02 95 1012.6
20260507053650 61 194 1.7 6.1 0.01 0.16 0.02 95 1012.8
20260507053550 61 171 1.7 6.1 0.01 0.16 0.02 95 1012.7
20260507053450 61 167 1.7 6.1 0.01 0.16 0.02 95 1012.8
20260507053351 61 177 1.7 6.1 0.01 0.16 0.02 95 1012.8
20260507053252 61 183 1.7 6.1 0.01 0.16 0.02 95 1012.8
20260507053148 61 174 1.7 6.1 0.01 0.16 0.02 95 1012.8
20260507053050 61 193 2.6 7.0 0.01 0.16 0.02 95 1012.9
20260507052949 61 194 2.6 7.0 0.01 0.16 0.02 95 1012.9
20260507052849 61 180 1.7 7.0 0.01 0.16 0.02 95 1012.8
20260507052749 61 198 2.6 7.0 0.01 0.16 0.02 95 1012.8
20260507052647 61 163 2.6 7.0 0.02 0.16 0.02 95 1012.7
20260507052547 61 186 2.6 7.0 0.02 0.16 0.02 95 1012.6
20260507052445 61 175 2.6 7.0 0.02 0.16 0.02 95 1012.6
20260507052340 61 178 2.6 7.0 0.02 0.16 0.02 95 1012.6
20260507052242 61 161 2.6 7.0 0.02 0.16 0.02 95 1012.6
20260507052141 61 164 2.6 7.0 0.02 0.16 0.02 95 1012.5
20260507052041 61 165 2.6 7.0 0.02 0.16 0.02 95 1012.6
20260507051940 61 161 2.6 7.0 0.01 0.15 0.02 95 1012.6
20260507051841 61 168 2.6 7.0 0.01 0.15 0.01 95 1012.6
20260507051741 61 168 1.7 7.0 0.01 0.15 0.01 95 1012.5
20260507051641 61 170 1.7 7.0 0.01 0.15 0.01 95 1012.5
20260507051542 62 163 1.7 7.0 0.01 0.15 0.01 95 1012.4
20260507051442 62 161 1.7 7.0 0.01 0.15 0.01 95 1012.5
20260507051340 62 172 0.9 7.0 0.01 0.15 0.01 95 1012.6
20260507051241 62 153 0.9 3.5 0.01 0.15 0.01 95 1012.7
20260507051138 62 151 0.9 3.5 0.01 0.15 0.01 95 1012.9
20260507051040 62 150 0.9 3.5 0.01 0.15 0.01 95 1013.0
20260507050939 62 165 0.9 3.5 0.01 0.15 0.01 95 1013.0
20260507050838 62 165 0.9 3.5 0.01 0.15 0.01 95 1013.0
20260507050740 62 164 0.9 3.5 0.01 0.15 0.01 95 1013.0
20260507050638 62 164 0.9 3.5 0.01 0.15 0.01 95 1013.0
20260507050539 62 162 0.9 3.5 0.01 0.15 0.01 95 1013.1
20260507050439 62 162 0.9 3.5 0.01 0.15 0.01 95 1013.0
20260507050340 62 162 0.9 3.5 0.01 0.15 0.01 95 1013.1
20260507050239 62 119 0.9 3.5 0.01 0.15 0.01 95 1013.1
20260507050138 62 119 0.9 3.5 0.01 0.15 0.01 95 1013.1
20260507050039 62 119 0.9 3.5 0.01 0.15 0.01 95 1013.1
20260507045939 62 119 0.9 3.5 0.01 0.15 0.01 95 1013.1
20260507045838 62 113 0.9 3.5 0.01 0.15 0.01 95 1013.2
20260507045738 62 111 0.9 3.5 0.01 0.15 0.01 95 1013.2
20260507045638 62 111 0.9 3.5 0.01 0.15 0.01 95 1013.3
20260507045538 62 98 0.9 1.7 0.01 0.15 0.01 95 1013.3
20260507045439 62 98 0.9 1.7 0.01 0.15 0.01 95 1013.1
20260507045338 62 98 0.9 2.6 0.01 0.15 0.01 95 1013.1
20260507045239 62 98 0.9 2.6 0.01 0.15 0.01 95 1013.0
20260507045139 62 98 0.9 2.6 0.01 0.15 0.01 95 1013.0
20260507045040 62 97 0.9 2.6 0.01 0.15 0.01 95 1013.0
20260507044938 62 96 0.9 4.3 0.01 0.15 0.01 95 1013.1
20260507044839 62 96 0.9 4.3 0.01 0.15 0.01 95 1013.1
20260507044738 62 96 0.9 4.3 0.01 0.15 0.01 95 1013.0
20260507044640 62 96 0.9 4.3 0.01 0.15 0.01 95 1013.0
20260507044538 62 96 0.9 4.3 0.01 0.15 0.01 95 1013.0
20260507044438 62 96 0.9 4.3 0.01 0.15 0.01 95 1013.1
20260507044340 62 96 0.9 4.3 0.01 0.15 0.01 95 1013.3
20260507044238 62 96 0.9 4.3 0.01 0.15 0.01 95 1013.7
20260507044139 62 101 0.9 4.3 0.01 0.15 0.01 95 1013.7
20260507044040 62 101 0.9 4.3 0.01 0.15 0.01 95 1013.8
20260507043939 62 185 0.9 4.3 0.01 0.15 0.01 95 1013.9
20260507043835 62 163 0.9 4.3 0.01 0.15 0.01 95 1013.9
20260507043736 62 165 0.9 4.3 0.01 0.15 0.01 95 1013.8
20260507043634 62 55 0.9 4.3 0.01 0.15 0.01 95 1013.9
20260507043536 62 34 0.9 7.8 0.01 0.15 0.01 95 1013.8
20260507043436 62 182 1.7 7.8 0.01 0.15 0.01 95 1013.7
20260507043335 62 182 1.7 7.8 0.01 0.15 0.01 95 1013.7
20260507043234 62 182 1.7 7.8 0.01 0.15 0.01 95 1013.5
20260507043134 62 182 1.7 7.8 0.01 0.15 0.01 95 1013.4
20260507043036 62 182 1.7 7.8 0.01 0.15 0.01 95 1013.3
20260507042934 62 182 2.6 7.8 0.01 0.15 0.01 95 1013.3
20260507042834 62 183 2.6 7.8 0.01 0.15 0.01 95 1013.1
20260507042734 62 183 2.6 7.8 0.01 0.15 0.01 95 1013.0
20260507042634 62 183 2.6 7.8 0.00 0.14 0.01 95 1013.0
20260507042535 62 168 2.6 7.8 0.00 0.14 0.00 95 1013.2
20260507042435 62 169 1.7 7.8 0.00 0.14 0.00 95 1013.2
20260507042335 62 166 1.7 7.8 0.00 0.14 0.00 95 1013.2
20260507042235 62 166 1.7 7.8 0.00 0.14 0.00 95 1013.1
20260507042135 62 169 1.7 7.8 0.00 0.14 0.00 95 1013.1
20260507042034 62 168 1.7 7.8 0.00 0.14 0.00 95 1013.1
20260507041934 62 150 1.7 6.1 0.00 0.14 0.00 95 1013.1
20260507041834 62 132 1.7 6.1 0.00 0.14 0.00 95 1013.2
20260507041736 62 167 1.7 6.1 0.00 0.14 0.00 95 1013.5
20260507041635 62 162 1.7 4.3 0.00 0.14 0.00 95 1013.7
20260507041535 62 162 1.7 4.3 0.00 0.14 0.00 95 1013.7
20260507041435 62 162 1.7 4.3 0.00 0.14 0.00 95 1013.4
20260507041335 62 162 1.7 4.3 0.00 0.14 0.00 95 1013.2
20260507041235 62 162 1.7 4.3 0.00 0.14 0.00 95 1013.1
20260507041135 62 160 2.6 4.3 0.00 0.14 0.00 95 1013.0
20260507041035 62 157 2.6 5.2 0.00 0.14 0.00 95 1012.7
20260507040934 62 157 2.6 5.2 0.00 0.14 0.00 95 1012.6
20260507040836 62 166 2.6 5.2 0.00 0.14 0.00 95 1012.8
20260507040734 62 166 2.6 5.2 0.00 0.14 0.00 95 1012.8
20260507040635 62 168 2.6 5.2 0.00 0.14 0.00 95 1012.9
20260507040536 62 171 2.6 5.2 0.00 0.14 0.00 95 1013.0
20260507040434 62 171 2.6 5.2 0.00 0.14 0.00 95 1012.9
20260507040336 62 176 2.6 5.2 0.00 0.14 0.00 95 1012.9
20260507040235 62 177 2.6 5.2 0.00 0.14 0.00 95 1012.8
20260507040126 62 177 2.6 5.2 0.00 0.14 0.00 95 1012.6
20260507040026 62 157 2.6 7.8 0.00 0.14 0.00 95 1012.5
20260507035928 62 147 2.6 7.8 0.00 0.14 0.14 95 1012.5
20260507035826 62 136 2.6 7.8 0.00 0.14 0.14 95 1012.6
20260507035728 62 178 1.7 7.8 0.00 0.14 0.14 95 1012.8
20260507035620 62 169 1.7 7.8 0.00 0.14 0.14 95 1012.9
20260507035521 62 169 1.7 7.8 0.00 0.14 0.14 95 1013.1
20260507035422 62 153 1.7 7.8 0.00 0.14 0.14 95 1013.1
20260507035319 62 163 1.7 7.8 0.00 0.14 0.14 95 1013.1
20260507035218 62 159 1.7 7.8 0.00 0.14 0.14 95 1013.1
20260507035110 62 153 1.7 7.8 0.00 0.14 0.14 95 1013.0
20260507035012 62 169 1.7 6.1 0.00 0.14 0.14 95 1013.2
20260507034912 62 170 1.7 6.1 0.00 0.14 0.14 95 1013.1
20260507034812 62 178 0.9 6.1 0.00 0.14 0.14 95 1013.1
20260507034712 62 211 0.9 6.1 0.00 0.14 0.14 95 1013.1
20260507034605 62 212 0.9 6.1 0.00 0.14 0.14 95 1012.9
20260507034505 62 189 0.9 5.2 0.00 0.14 0.14 95 1012.8
20260507034406 62 167 0.9 5.2 0.00 0.14 0.14 95 1012.9
20260507034305 62 234 0.9 5.2 0.00 0.14 0.14 95 1012.9
20260507034205 62 107 0.9 5.2 0.00 0.14 0.14 95 1012.9
20260507034100 62 119 1.7 5.2 0.00 0.14 0.14 95 1013.0
20260507034000 62 118 1.7 6.1 0.00 0.14 0.14 95 1013.0
20260507033902 62 165 1.7 6.1 0.01 0.14 0.14 95 1012.9
20260507033801 62 164 1.7 6.1 0.01 0.14 0.14 95 1012.9
20260507033701 62 164 1.7 6.1 0.01 0.14 0.14 95 1012.8
20260507033602 62 167 1.7 6.1 0.01 0.14 0.14 95 1012.8
20260507033502 62 174 1.7 6.1 0.01 0.14 0.14 95 1012.8
20260507033358 62 181 1.7 6.1 0.01 0.14 0.14 95 1012.7
20260507033259 62 182 1.7 6.1 0.02 0.14 0.14 95 1012.7
20260507033202 62 184 2.6 6.1 0.02 0.14 0.14 95 1012.5
20260507033058 62 184 2.6 7.0 0.02 0.14 0.14 95 1012.5
20260507032958 62 163 2.6 7.0 0.02 0.14 0.14 95 1012.5
20260507032859 62 164 2.6 8.7 0.02 0.14 0.14 95 1012.4
20260507032658 62 150 2.6 8.7 0.02 0.14 0.14 95 1012.5
20260507032558 62 142 2.6 8.7 0.02 0.14 0.14 95 1012.5
20260507032459 62 155 2.6 8.7 0.02 0.14 0.14 95 1012.5
20260507032355 62 176 2.6 8.7 0.02 0.14 0.14 94 1012.6
20260507032255 62 166 2.6 8.7 0.02 0.14 0.14 94 1012.6
20260507032154 62 138 2.6 8.7 0.02 0.14 0.14 94 1012.6
20260507032054 62 201 2.6 8.7 0.02 0.14 0.14 94 1012.5
20260507031954 62 192 2.6 8.7 0.02 0.14 0.14 94 1012.5
20260507031856 62 255 2.6 8.7 0.02 0.14 0.14 94 1012.5
20260507031754 62 163 2.6 8.7 0.02 0.14 0.14 94 1012.4
20260507031652 62 174 2.6 7.8 0.03 0.14 0.14 94 1012.5
20260507031550 62 175 2.6 7.8 0.03 0.14 0.14 94 1012.4
20260507031450 62 224 3.5 7.8 0.03 0.14 0.14 94 1012.2
20260507031350 62 153 3.5 7.8 0.03 0.14 0.14 94 1012.2
20260507031252 62 205 3.5 7.8 0.03 0.14 0.14 94 1012.0
20260507031150 62 227 3.5 7.8 0.03 0.14 0.14 94 1011.8
20260507031048 62 179 3.5 7.8 0.03 0.14 0.14 94 1011.7
20260507030949 62 182 3.5 7.8 0.03 0.14 0.14 94 1011.6
20260507030848 62 167 3.5 7.8 0.03 0.14 0.14 94 1011.6
20260507030750 62 159 3.5 6.1 0.03 0.14 0.14 94 1011.7
20260507030644 62 204 2.6 6.1 0.04 0.14 0.14 94 1011.6
20260507030545 62 157 2.6 6.1 0.04 0.14 0.14 94 1011.7
20260507030446 62 188 2.6 7.0 0.04 0.14 0.14 94 1011.7
20260507030344 62 176 2.6 7.0 0.04 0.14 0.14 94 1011.8
20260507030245 62 162 2.6 7.0 0.04 0.14 0.14 94 1012.0
20260507030145 62 155 3.5 7.0 0.04 0.14 0.14 94 1012.0
20260507030044 62 180 3.5 7.0 0.04 0.14 0.14 94 1012.1
20260507025944 62 191 2.6 7.0 0.04 0.14 0.14 93 1012.2
20260507025842 62 191 2.6 7.0 0.04 0.14 0.14 93 1012.2
20260507025741 62 158 2.6 7.0 0.04 0.14 0.14 93 1012.2
20260507025641 62 172 2.6 7.0 0.04 0.14 0.14 93 1012.2
20260507025541 62 196 2.6 7.0 0.04 0.14 0.14 93 1012.3
20260507025440 62 165 2.6 7.0 0.04 0.14 0.14 94 1012.3
20260507025340 62 184 2.6 7.0 0.04 0.14 0.14 94 1012.3
20260507025240 62 157 2.6 7.0 0.04 0.14 0.14 94 1012.3
20260507025140 62 175 2.6 7.0 0.04 0.14 0.14 94 1012.3
20260507025041 62 158 2.6 7.0 0.04 0.14 0.14 94 1012.3
20260507024941 62 184 2.6 7.0 0.04 0.14 0.14 94 1012.3
20260507024841 62 185 2.6 7.0 0.04 0.14 0.14 94 1012.5
20260507024742 62 187 2.6 7.0 0.04 0.14 0.14 94 1012.6
20260507024639 62 188 1.7 7.0 0.04 0.14 0.14 94 1012.5
20260507024539 62 188 1.7 7.0 0.05 0.14 0.14 94 1012.4
20260507024440 62 146 1.7 7.0 0.05 0.14 0.14 94 1012.2
20260507024338 62 105 1.7 7.0 0.05 0.14 0.14 94 1012.2
20260507024238 62 138 1.7 7.0 0.05 0.14 0.14 94 1012.6
20260507024139 62 135 0.9 7.0 0.05 0.14 0.14 94 1013.2
20260507024039 62 111 0.9 5.2 0.05 0.14 0.14 94 1013.5
20260507023938 62 104 0.9 5.2 0.05 0.14 0.14 94 1013.8
20260507023838 62 341 0.9 5.2 0.04 0.13 0.14 94 1013.9
20260507023738 62 317 0.9 5.2 0.04 0.13 0.13 94 1014.0
20260507023638 62 180 0.9 5.2 0.04 0.13 0.13 94 1013.9
20260507023537 62 180 1.7 5.2 0.04 0.13 0.13 94 1013.9
20260507023437 62 186 1.7 5.2 0.04 0.13 0.13 94 1014.0
20260507023337 62 180 0.9 3.5 0.04 0.13 0.13 94 1014.1
20260507023237 62 88 0.9 3.5 0.03 0.12 0.13 94 1014.1
20260507023138 62 120 0.9 3.5 0.03 0.12 0.12 94 1014.0
20260507023037 62 87 0.9 2.6 0.03 0.12 0.12 94 1014.0
20260507022936 62 114 0.9 2.6 0.03 0.12 0.12 94 1013.9
20260507022837 62 113 0.9 3.5 0.03 0.12 0.12 94 1013.9
20260507022736 62 105 0.9 3.5 0.03 0.12 0.12 94 1013.8
20260507022637 62 97 1.7 3.5 0.03 0.12 0.12 94 1013.8
20260507022537 62 85 1.7 6.1 0.03 0.12 0.12 94 1013.9
20260507022436 62 103 1.7 6.1 0.03 0.12 0.12 94 1013.8
20260507022336 62 103 1.7 6.1 0.03 0.12 0.12 94 1013.5
20260507022237 62 103 1.7 6.1 0.03 0.12 0.12 93 1013.5
20260507022136 62 169 1.7 6.1 0.03 0.12 0.12 93 1013.5
20260507022038 62 169 1.7 6.1 0.03 0.12 0.12 93 1013.7
20260507021937 63 169 1.7 6.1 0.03 0.12 0.12 94 1013.7
20260507021836 63 175 1.7 6.1 0.03 0.12 0.12 93 1013.7
20260507021736 62 169 1.7 6.1 0.03 0.12 0.12 94 1013.7
20260507021636 62 143 0.9 6.1 0.02 0.11 0.12 94 1013.5
20260507021537 63 159 0.9 4.3 0.02 0.11 0.11 94 1013.7
20260507021437 63 153 0.9 3.5 0.02 0.11 0.11 94 1013.7
20260507021336 63 109 0.9 2.6 0.02 0.11 0.11 94 1013.5
20260507021237 63 109 0.9 3.5 0.02 0.11 0.11 94 1013.7
20260507021136 63 109 0.9 3.5 0.02 0.11 0.11 93 1013.5
20260507021037 63 98 0.9 3.5 0.02 0.11 0.11 94 1013.5
20260507020938 63 51 0.9 3.5 0.02 0.11 0.11 94 1013.5
20260507020837 63 34 1.7 3.5 0.02 0.11 0.11 94 1013.5
20260507020736 63 227 1.7 3.5 0.02 0.11 0.11 93 1013.5
20260507020637 63 200 1.7 3.5 0.01 0.10 0.10 94 1013.5
20260507020537 63 133 1.7 4.3 0.01 0.10 0.10 93 1013.5
20260507020432 63 134 1.7 6.1 0.01 0.10 0.10 94 1013.5
20260507020333 63 186 1.7 6.1 0.01 0.10 0.10 94 1013.4
20260507020233 63 171 1.7 6.1 0.01 0.10 0.10 93 1013.4
20260507020133 63 246 1.7 6.1 0.01 0.10 0.10 93 1013.4
20260507020034 63 97 1.7 6.1 0.02 0.10 0.10 94 1013.4
20260507015932 63 96 1.7 6.1 0.02 0.10 0.10 94 1013.5
20260507015833 63 94 1.7 6.1 0.02 0.10 0.10 93 1013.5
20260507015732 63 348 1.7 6.1 0.02 0.10 0.10 94 1013.4
20260507015634 63 216 1.7 6.1 0.02 0.10 0.10 94 1013.5
20260507015533 63 186 1.7 6.1 0.02 0.10 0.10 94 1013.3
20260507015432 63 135 1.7 6.1 0.02 0.10 0.10 94 1013.3
20260507015332 63 61 1.7 6.1 0.02 0.10 0.10 94 1013.4
20260507015234 63 225 1.7 5.2 0.02 0.10 0.10 94 1013.5
20260507015133 63 97 1.7 4.3 0.02 0.10 0.10 94 1013.5
20260507015033 63 184 0.9 4.3 0.02 0.10 0.10 94 1013.4
20260507014932 63 213 1.7 4.3 0.02 0.10 0.10 94 1013.4
20260507014833 63 170 1.7 4.3 0.02 0.10 0.10 94 1013.5
20260507014732 63 141 1.7 4.3 0.02 0.10 0.10 94 1013.5
20260507014632 63 180 0.9 4.3 0.02 0.10 0.10 94 1013.5
20260507014532 63 26 1.7 4.3 0.01 0.09 0.10 94 1013.5
20260507014432 63 345 1.7 5.2 0.01 0.09 0.09 94 1013.4
20260507014334 63 345 1.7 5.2 0.01 0.09 0.09 94 1013.4
20260507014233 63 91 1.7 5.2 0.01 0.09 0.09 94 1013.5
20260507014132 63 108 1.7 6.1 0.01 0.09 0.09 94 1013.4
20260507014034 63 74 1.7 6.1 0.01 0.09 0.09 94 1013.5
20260507013933 63 257 1.7 6.1 0.01 0.09 0.09 94 1013.5
20260507013832 63 178 1.7 6.1 0.02 0.09 0.09 94 1013.5
20260507013733 63 69 1.7 6.1 0.02 0.09 0.09 94 1013.5
20260507013632 63 355 1.7 6.1 0.02 0.09 0.09 93 1013.5
20260507013534 63 75 1.7 6.1 0.02 0.09 0.09 93 1013.4
20260507013433 63 194 1.7 6.1 0.02 0.09 0.09 93 1013.3
20260507013332 63 30 1.7 6.1 0.02 0.09 0.09 94 1013.3
20260507013234 63 22 1.7 6.1 0.02 0.09 0.09 93 1013.3
20260507013129 63 271 1.7 4.3 0.02 0.09 0.09 93 1013.2
20260507013029 63 274 1.7 4.3 0.02 0.09 0.09 94 1013.2
20260507012929 63 211 1.7 4.3 0.02 0.09 0.09 93 1013.1
20260507012828 63 101 1.7 4.3 0.02 0.09 0.09 93 1013.1
20260507012728 63 105 1.7 4.3 0.02 0.09 0.09 93 1013.0
20260507012629 63 209 0.9 4.3 0.02 0.09 0.09 93 1013.1
20260507012528 63 182 0.9 4.3 0.02 0.09 0.09 93 1013.1
20260507012428 63 184 0.9 4.3 0.02 0.09 0.09 93 1013.2
20260507012328 63 251 0.9 3.5 0.02 0.09 0.09 93 1013.1
20260507012228 63 73 0.9 3.5 0.03 0.09 0.09 93 1013.0
20260507012128 63 355 0.9 3.5 0.03 0.09 0.09 93 1012.9
20260507012030 63 355 0.9 3.5 0.03 0.09 0.09 93 1012.9
20260507011929 63 182 0.9 8.7 0.03 0.09 0.09 93 1012.9
20260507011829 63 163 0.9 8.7 0.03 0.09 0.09 93 1012.9
20260507011729 63 163 0.9 8.7 0.03 0.09 0.09 93 1012.8
20260507011630 63 150 1.7 8.7 0.03 0.09 0.09 93 1012.6
20260507011528 63 150 1.7 8.7 0.03 0.09 0.09 93 1012.5
20260507011429 63 149 1.7 8.7 0.04 0.09 0.09 93 1012.5
20260507011328 63 151 1.7 8.7 0.04 0.09 0.09 93 1012.5
20260507011229 63 177 1.7 8.7 0.04 0.09 0.09 93 1012.5
20260507011128 63 177 1.7 8.7 0.04 0.09 0.09 93 1012.6
20260507011028 63 194 1.7 8.7 0.04 0.09 0.09 93 1012.5
20260507010928 63 98 1.7 6.1 0.04 0.09 0.09 93 1012.5
20260507010830 63 94 1.7 6.1 0.04 0.09 0.09 93 1012.6
20260507010728 63 346 1.7 6.1 0.04 0.09 0.09 93 1012.5
20260507010630 63 191 1.7 6.1 0.04 0.09 0.09 93 1012.4
20260507010521 63 312 1.7 5.2 0.04 0.09 0.09 93 1012.4
20260507010421 63 101 1.7 6.1 0.04 0.09 0.09 93 1012.3
20260507010321 63 128 1.7 6.1 0.04 0.09 0.09 93 1012.3
20260507010222 63 136 2.6 6.1 0.05 0.09 0.09 93 1012.4
20260507010122 63 87 2.6 6.1 0.04 0.08 0.09 93 1012.3
20260507010021 63 150 2.6 6.1 0.04 0.08 0.08 93 1012.3
20260507005921 63 141 2.6 6.1 0.04 0.08 0.08 93 1012.3
20260507005821 63 143 2.6 6.1 0.04 0.08 0.08 93 1012.3
20260507005720 63 144 2.6 6.1 0.04 0.08 0.08 93 1012.3
20260507005620 63 148 2.6 6.1 0.04 0.08 0.08 93 1012.3
20260507005520 63 148 2.6 6.1 0.04 0.08 0.08 93 1012.4
20260507005421 63 177 2.6 5.2 0.04 0.08 0.08 93 1012.4
20260507005321 63 215 2.6 6.1 0.04 0.08 0.08 93 1012.4
20260507005222 63 130 2.6 7.0 0.04 0.08 0.08 93 1012.4
20260507005121 63 182 2.6 7.0 0.04 0.08 0.08 93 1012.4
20260507005020 63 149 2.6 7.8 0.04 0.08 0.08 93 1012.4
20260507004820 63 165 2.6 7.8 0.04 0.08 0.08 93 1012.4
20260507004721 63 165 3.5 7.8 0.04 0.08 0.08 93 1012.5
20260507004620 63 134 2.6 7.8 0.04 0.08 0.08 93 1012.5
20260507004520 63 138 3.5 7.8 0.04 0.08 0.08 93 1012.5
20260507004421 63 274 3.5 7.8 0.04 0.08 0.08 93 1012.4
20260507004321 63 136 3.5 7.8 0.04 0.08 0.08 93 1012.5
20260507004221 63 178 3.5 11.3 0.04 0.08 0.08 93 1012.4
20260507004121 63 141 3.5 11.3 0.04 0.08 0.08 93 1012.4
20260507004021 63 165 3.5 11.3 0.05 0.08 0.08 93 1012.5
20260507003920 63 168 4.3 11.3 0.05 0.08 0.08 93 1012.6
20260507003821 63 166 4.3 11.3 0.04 0.07 0.08 93 1012.6
20260507003721 63 77 4.3 11.3 0.04 0.07 0.07 93 1012.6
20260507003621 63 150 4.3 11.3 0.04 0.07 0.07 93 1012.6
20260507003522 63 161 4.3 11.3 0.04 0.07 0.07 93 1012.5
20260507003420 63 173 4.3 11.3 0.04 0.07 0.07 93 1012.4
20260507003322 63 148 4.3 11.3 0.04 0.07 0.07 93 1012.5
20260507003216 63 182 4.3 10.4 0.04 0.07 0.07 93 1012.5
20260507003118 63 162 4.3 10.4 0.04 0.07 0.07 93 1012.6
20260507003017 63 138 4.3 10.4 0.04 0.07 0.07 93 1012.4
20260507002916 63 160 4.3 8.7 0.04 0.07 0.07 93 1012.5
20260507002817 63 183 4.3 8.7 0.04 0.07 0.07 93 1012.6
20260507002716 63 171 4.3 8.7 0.04 0.07 0.07 93 1012.4
20260507002617 63 163 4.3 8.7 0.04 0.07 0.07 93 1012.5
20260507002517 63 158 4.3 9.6 0.04 0.07 0.07 93 1012.6
20260507002417 63 148 4.3 9.6 0.04 0.07 0.07 93 1012.6
20260507002316 63 169 4.3 9.6 0.03 0.06 0.07 93 1012.5
20260507002216 63 139 3.5 9.6 0.03 0.06 0.06 93 1012.4
20260507002116 63 177 3.5 9.6 0.03 0.06 0.06 93 1012.4
20260507002017 63 143 3.5 9.6 0.03 0.06 0.06 93 1012.4
20260507001916 63 187 3.5 9.6 0.03 0.06 0.06 93 1012.4
20260507001816 63 163 3.5 9.6 0.03 0.06 0.06 93 1012.4
20260507001718 63 144 3.5 9.6 0.03 0.06 0.06 92 1012.7
20260507001615 63 161 3.5 9.6 0.03 0.06 0.06 92 1012.7
20260507001515 63 143 3.5 9.6 0.03 0.06 0.06 93 1012.7
20260507001415 63 216 3.5 9.6 0.02 0.05 0.05 92 1012.7
20260507001311 64 80 3.5 9.6 0.02 0.05 0.05 92 1012.8
20260507001208 63 272 4.3 9.6 0.02 0.05 0.05 92 1012.6
20260507001108 63 116 4.3 9.6 0.02 0.05 0.05 92 1012.5
20260507001008 63 171 3.5 7.8 0.02 0.05 0.05 92 1012.5
20260507000909 63 121 3.5 7.8 0.02 0.05 0.05 92 1012.8
20260507000804 63 156 3.5 7.8 0.02 0.05 0.05 92 1012.6
20260507000702 64 165 2.6 7.8 0.02 0.05 0.05 92 1012.8
20260507000602 64 139 2.6 7.0 0.02 0.05 0.05 92 1012.8
20260507000503 64 127 2.6 7.0 0.02 0.05 0.05 92 1012.8
20260507000405 63 156 2.6 6.1 0.02 0.05 0.05 92 1012.8
20260507000253 63 207 2.6 7.0 0.02 0.05 0.05 92 1012.8
20260507000153 63 167 3.5 7.0 0.01 0.04 0.05 92 1012.8
20260507000053 63 169 3.5 7.0 0.01 0.04 0.04 92 1012.8
20260506235952 63 168 3.5 7.0 0.01 0.04 0.04 92 1012.8
20260506235853 63 157 3.5 7.0 0.01 0.04 0.04 92 1012.8
20260506235749 63 167 3.5 7.0 0.01 0.04 0.04 92 1012.7
20260506235648 64 119 3.5 7.8 0.01 0.04 0.04 92 1012.6
20260506235549 63 186 3.5 7.8 0.01 0.04 0.04 92 1012.7
20260506235449 63 168 3.5 7.8 0.01 0.04 0.04 92 1012.7
20260506235346 64 159 3.5 7.8 0.01 0.04 0.04 92 1012.6
20260506235241 64 158 3.5 7.8 0.01 0.04 0.04 92 1012.5
20260506235140 64 167 3.5 7.8 0.01 0.04 0.04 91 1012.4
20260506235041 64 147 3.5 7.8 0.01 0.04 0.04 91 1012.4
20260506234941 64 145 3.5 7.8 0.01 0.04 0.04 91 1012.5
20260506234840 64 172 3.5 7.8 0.01 0.04 0.04 91 1012.5